Pastebin launched a little side project called VERYVIRAL.com, check it out ;-) Want more features on Pastebin? Sign Up, it's FREE!
Guest

log

By: a guest on Apr 18th, 2012  |  syntax: None  |  size: 70.97 KB  |  views: 25  |  expires: Never
download  |  raw  |  embed  |  report abuse  |  print
Text below is selected. Please press Ctrl+C to copy to your clipboard. (⌘+C on Mac)
  1. 20:16:31 T:5804  NOTICE: -----------------------------------------------------------------------
  2. 20:16:31 T:5804  NOTICE: Starting XBMC (11.0 Git:20120321-14feb09), Platform: Windows 7, 64-bit (WoW) build 7600. Built on Mar 21 2012 (compiler 1600)
  3. 20:16:31 T:5804  NOTICE: AMD Athlon(tm) II X4 620 Processor
  4. 20:16:31 T:5804  NOTICE: Desktop Resolution: 1920x1080 32Bit at 60Hz
  5. 20:16:31 T:5804  NOTICE: Running with restricted rights
  6. 20:16:31 T:5804  NOTICE: Aero is enabled
  7. 20:16:31 T:5804  NOTICE: special://xbmc/ is mapped to: C:\Program Files (x86)\XBMC
  8. 20:16:31 T:5804  NOTICE: special://xbmcbin/ is mapped to: C:\Program Files (x86)\XBMC
  9. 20:16:31 T:5804  NOTICE: special://masterprofile/ is mapped to: C:\Users\Pearce\AppData\Roaming\XBMC\userdata
  10. 20:16:31 T:5804  NOTICE: special://home/ is mapped to: C:\Users\Pearce\AppData\Roaming\XBMC\
  11. 20:16:31 T:5804  NOTICE: special://temp/ is mapped to: C:\Users\Pearce\AppData\Roaming\XBMC\cache
  12. 20:16:31 T:5804  NOTICE: The executable running is: C:\Program Files (x86)\XBMC\XBMC.exe
  13. 20:16:31 T:5804  NOTICE: Local hostname: Pearce-PC
  14. 20:16:31 T:5804  NOTICE: Log File is located: C:\Users\Pearce\AppData\Roaming\XBMC\xbmc.log
  15. 20:16:31 T:5804  NOTICE: -----------------------------------------------------------------------
  16. 20:16:31 T:5804  NOTICE: Setup SDL
  17. 20:16:31 T:5804  NOTICE: Found screen: Generic PnP Monitor on ATI Radeon HD 4800 Series, adapter 0.
  18. 20:16:31 T:5804  NOTICE: Found screen: Generic PnP Monitor on ATI Radeon HD 4800 Series, adapter 1.
  19. 20:16:31 T:5804  NOTICE: Primary mode: 1920x1080 @ 60.00 - Full Screen
  20. 20:16:31 T:5804  NOTICE: Secondary mode: 1920x1080 @ 30.00i - Full Screen #2
  21. 20:16:31 T:5804  NOTICE: Additional mode: 640x480 @ 59.94 - Full Screen
  22. 20:16:31 T:5804  NOTICE: Additional mode: 640x480 @ 60.00 - Full Screen
  23. 20:16:31 T:5804  NOTICE: Additional mode: 640x480 @ 73.00 - Full Screen
  24. 20:16:31 T:5804  NOTICE: Additional mode: 640x480 @ 75.00 - Full Screen
  25. 20:16:31 T:5804  NOTICE: Additional mode: 720x480 @ 60.00 - Full Screen
  26. 20:16:31 T:5804  NOTICE: Previous line repeats 2 times.
  27. 20:16:31 T:5804  NOTICE: Additional mode: 720x576 @ 60.00 - Full Screen
  28. 20:16:31 T:5804  NOTICE: Previous line repeats 2 times.
  29. 20:16:31 T:5804  NOTICE: Additional mode: 800x600 @ 56.00 - Full Screen
  30. 20:16:31 T:5804  NOTICE: Additional mode: 800x600 @ 60.00 - Full Screen
  31. 20:16:31 T:5804  NOTICE: Additional mode: 800x600 @ 72.00 - Full Screen
  32. 20:16:31 T:5804  NOTICE: Additional mode: 800x600 @ 75.00 - Full Screen
  33. 20:16:31 T:5804  NOTICE: Additional mode: 848x480 @ 60.00 - Full Screen
  34. 20:16:31 T:5804  NOTICE: Previous line repeats 2 times.
  35. 20:16:31 T:5804  NOTICE: Additional mode: 1024x768 @ 60.00 - Full Screen
  36. 20:16:31 T:5804  NOTICE: Additional mode: 1024x768 @ 70.00 - Full Screen
  37. 20:16:31 T:5804  NOTICE: Additional mode: 1024x768 @ 75.00 - Full Screen
  38. 20:16:31 T:5804  NOTICE: Additional mode: 1152x864 @ 60.00 - Full Screen
  39. 20:16:31 T:5804  NOTICE: Previous line repeats 2 times.
  40. 20:16:31 T:5804  NOTICE: Additional mode: 1152x864 @ 75.00 - Full Screen
  41. 20:16:31 T:5804  NOTICE: Additional mode: 1280x720 @ 60.00 - Full Screen
  42. 20:16:31 T:5804  NOTICE: Previous line repeats 2 times.
  43. 20:16:31 T:5804  NOTICE: Additional mode: 1280x768 @ 60.00 - Full Screen
  44. 20:16:31 T:5804  NOTICE: Previous line repeats 2 times.
  45. 20:16:31 T:5804  NOTICE: Additional mode: 1280x800 @ 60.00 - Full Screen
  46. 20:16:31 T:5804  NOTICE: Previous line repeats 2 times.
  47. 20:16:31 T:5804  NOTICE: Additional mode: 1280x960 @ 60.00 - Full Screen
  48. 20:16:31 T:5804  NOTICE: Additional mode: 1280x1024 @ 60.00 - Full Screen
  49. 20:16:31 T:5804  NOTICE: Additional mode: 1280x1024 @ 75.00 - Full Screen
  50. 20:16:31 T:5804  NOTICE: Additional mode: 1360x768 @ 60.00 - Full Screen
  51. 20:16:31 T:5804  NOTICE: Previous line repeats 2 times.
  52. 20:16:31 T:5804  NOTICE: Additional mode: 1360x1024 @ 60.00 - Full Screen
  53. 20:16:31 T:5804  NOTICE: Previous line repeats 2 times.
  54. 20:16:31 T:5804  NOTICE: Additional mode: 1366x768 @ 60.00 - Full Screen
  55. 20:16:31 T:5804  NOTICE: Previous line repeats 2 times.
  56. 20:16:31 T:5804  NOTICE: Additional mode: 1400x1050 @ 60.00 - Full Screen
  57. 20:16:31 T:5804  NOTICE: Additional mode: 1440x480 @ 60.00 - Full Screen
  58. 20:16:31 T:5804  NOTICE: Previous line repeats 2 times.
  59. 20:16:31 T:5804  NOTICE: Additional mode: 1440x900 @ 60.00 - Full Screen
  60. 20:16:31 T:5804  NOTICE: Additional mode: 1600x900 @ 60.00 - Full Screen
  61. 20:16:31 T:5804  NOTICE: Previous line repeats 2 times.
  62. 20:16:31 T:5804  NOTICE: Additional mode: 1600x1200 @ 60.00 - Full Screen
  63. 20:16:31 T:5804  NOTICE: Additional mode: 1680x1050 @ 59.94 - Full Screen
  64. 20:16:31 T:5804  NOTICE: Additional mode: 1680x1050 @ 60.00 - Full Screen
  65. 20:16:31 T:5804  NOTICE: Additional mode: 1776x1000 @ 60.00 - Full Screen
  66. 20:16:31 T:5804  NOTICE: Additional mode: 1920x1080 @ 60.00 - Full Screen
  67. 20:16:31 T:5804  NOTICE: Additional mode: 640x480 @ 60.00 - Full Screen #2
  68. 20:16:31 T:5804  NOTICE: Previous line repeats 2 times.
  69. 20:16:31 T:5804  NOTICE: Additional mode: 720x480 @ 30.00i - Full Screen #2
  70. 20:16:31 T:5804  NOTICE: Previous line repeats 2 times.
  71. 20:16:31 T:5804  NOTICE: Additional mode: 720x480 @ 60.00 - Full Screen #2
  72. 20:16:31 T:5804  NOTICE: Previous line repeats 2 times.
  73. 20:16:31 T:5804  NOTICE: Additional mode: 720x576 @ 60.00 - Full Screen #2
  74. 20:16:31 T:5804  NOTICE: Previous line repeats 2 times.
  75. 20:16:31 T:5804  NOTICE: Additional mode: 800x600 @ 60.00 - Full Screen #2
  76. 20:16:31 T:5804  NOTICE: Previous line repeats 2 times.
  77. 20:16:31 T:5804  NOTICE: Additional mode: 848x480 @ 60.00 - Full Screen #2
  78. 20:16:31 T:5804  NOTICE: Previous line repeats 2 times.
  79. 20:16:31 T:5804  NOTICE: Additional mode: 1024x768 @ 60.00 - Full Screen #2
  80. 20:16:31 T:5804  NOTICE: Previous line repeats 2 times.
  81. 20:16:31 T:5804  NOTICE: Additional mode: 1152x648 @ 60.00 - Full Screen #2
  82. 20:16:31 T:5804  NOTICE: Previous line repeats 2 times.
  83. 20:16:31 T:5804  NOTICE: Additional mode: 1152x864 @ 60.00 - Full Screen #2
  84. 20:16:31 T:5804  NOTICE: Previous line repeats 2 times.
  85. 20:16:31 T:5804  NOTICE: Additional mode: 1280x720 @ 60.00 - Full Screen #2
  86. 20:16:31 T:5804  NOTICE: Previous line repeats 2 times.
  87. 20:16:31 T:5804  NOTICE: Additional mode: 1280x768 @ 60.00 - Full Screen #2
  88. 20:16:31 T:5804  NOTICE: Previous line repeats 2 times.
  89. 20:16:31 T:5804  NOTICE: Additional mode: 1280x800 @ 60.00 - Full Screen #2
  90. 20:16:31 T:5804  NOTICE: Previous line repeats 2 times.
  91. 20:16:31 T:5804  NOTICE: Additional mode: 1280x960 @ 60.00 - Full Screen #2
  92. 20:16:31 T:5804  NOTICE: Previous line repeats 2 times.
  93. 20:16:31 T:5804  NOTICE: Additional mode: 1280x1024 @ 60.00 - Full Screen #2
  94. 20:16:31 T:5804  NOTICE: Previous line repeats 2 times.
  95. 20:16:31 T:5804  NOTICE: Additional mode: 1360x768 @ 60.00 - Full Screen #2
  96. 20:16:31 T:5804  NOTICE: Previous line repeats 2 times.
  97. 20:16:31 T:5804  NOTICE: Additional mode: 1360x1024 @ 60.00 - Full Screen #2
  98. 20:16:31 T:5804  NOTICE: Previous line repeats 2 times.
  99. 20:16:31 T:5804  NOTICE: Additional mode: 1366x768 @ 60.00 - Full Screen #2
  100. 20:16:31 T:5804  NOTICE: Previous line repeats 2 times.
  101. 20:16:31 T:5804  NOTICE: Additional mode: 1400x1050 @ 60.00 - Full Screen #2
  102. 20:16:31 T:5804  NOTICE: Previous line repeats 2 times.
  103. 20:16:31 T:5804  NOTICE: Additional mode: 1440x480 @ 60.00 - Full Screen #2
  104. 20:16:31 T:5804  NOTICE: Previous line repeats 2 times.
  105. 20:16:31 T:5804  NOTICE: Additional mode: 1440x900 @ 60.00 - Full Screen #2
  106. 20:16:31 T:5804  NOTICE: Previous line repeats 2 times.
  107. 20:16:31 T:5804  NOTICE: Additional mode: 1600x900 @ 60.00 - Full Screen #2
  108. 20:16:31 T:5804  NOTICE: Previous line repeats 2 times.
  109. 20:16:31 T:5804  NOTICE: Additional mode: 1680x1050 @ 60.00 - Full Screen #2
  110. 20:16:31 T:5804  NOTICE: Previous line repeats 2 times.
  111. 20:16:31 T:5804  NOTICE: Additional mode: 1776x1000 @ 30.00i - Full Screen #2
  112. 20:16:31 T:5804  NOTICE: Additional mode: 1776x1000 @ 60.00 - Full Screen #2
  113. 20:16:31 T:5804  NOTICE: Previous line repeats 2 times.
  114. 20:16:31 T:5804  NOTICE: Additional mode: 1920x1080 @ 30.00i - Full Screen #2
  115. 20:16:31 T:5804  NOTICE: Additional mode: 1920x1080 @ 24.00 - Full Screen #2
  116. 20:16:31 T:5804  NOTICE: Additional mode: 1920x1080 @ 29.97i - Full Screen #2
  117. 20:16:31 T:5804  NOTICE: Additional mode: 1920x1080 @ 60.00 - Full Screen #2
  118. 20:16:31 T:5804  NOTICE: load settings...
  119. 20:16:31 T:5804  NOTICE: special://profile/ is mapped to: special://masterprofile/
  120. 20:16:31 T:5804  NOTICE: loading special://masterprofile/guisettings.xml
  121. 20:16:31 T:5804  NOTICE: Getting hardware information now...
  122. 20:16:31 T:5804  NOTICE: Checking resolution 13
  123. 20:16:31 T:5804  NOTICE: Loading player core factory settings from special://xbmc/system/playercorefactory.xml.
  124. 20:16:31 T:5804  NOTICE: Loaded playercorefactory configuration
  125. 20:16:31 T:5804  NOTICE: Loading player core factory settings from special://masterprofile/playercorefactory.xml.
  126. 20:16:31 T:5804  NOTICE: special://masterprofile/playercorefactory.xml does not exist. Skipping.
  127. 20:16:31 T:5804  NOTICE: No settings file to load (special://xbmc/system/advancedsettings.xml)
  128. 20:16:31 T:5804  NOTICE: Loaded settings file from special://profile/advancedsettings.xml
  129. 20:16:31 T:5804  NOTICE: Contents of special://profile/advancedsettings.xml are...
  130.                                             <advancedsettings>
  131.                                               <videolibrary>
  132.                                                 <cleanonupdate>true</cleanonupdate>
  133.                                               </videolibrary>
  134.                                             </advancedsettings>
  135. 20:16:31 T:5804  NOTICE: Getting hardware information now...
  136. 20:16:31 T:5804  NOTICE: Checking resolution 13
  137. 20:16:31 T:5804  NOTICE: Default DVD Player: dvdplayer
  138. 20:16:31 T:5804  NOTICE: Default Video Player: dvdplayer
  139. 20:16:31 T:5804  NOTICE: Default Audio Player: paplayer
  140. 20:16:31 T:5804  NOTICE: Disabled debug logging due to GUI setting. Level 0.
  141. 20:16:31 T:5804  NOTICE: Log level changed to 0
  142. 20:16:31 T:5804  NOTICE: Loading media sources from special://masterprofile/sources.xml
  143. 20:16:32 T:5804  NOTICE: initializing playlistplayer
  144. 20:16:32 T:5804  NOTICE: DONE initializing playlistplayer
  145. 20:16:32 T:5804  NOTICE: CApplication::UpdateLibraries - Starting video library startup scan
  146. 20:16:32 T:4680  NOTICE: -->Python Interpreter Initialized<--
  147. 20:16:32 T:5804  NOTICE: initialize done
  148. 20:16:32 T:5804  NOTICE: Running the application...
  149. 20:16:32 T:4680  NOTICE: downloader ARGV: ['']
  150. 20:16:32 T:6316  NOTICE: VideoInfoScanner: Starting scan ..
  151. 20:16:32 T:6380  NOTICE: -->Python Interpreter Initialized<--
  152. 20:16:32 T:5804  NOTICE: Webserver: Starting...
  153. 20:16:32 T:5804  NOTICE: WebServer: Started the webserver
  154. 20:16:32 T:5804  NOTICE: ES: Starting event server
  155. 20:16:32 T:5628  NOTICE: ES: Starting UDP Event server on 0.0.0.0:9777
  156. 20:16:32 T:5804  NOTICE: starting zeroconf publishing
  157. 20:16:32 T:5628  NOTICE: UDP: Listening on port 9777
  158. 20:16:32 T:5568  NOTICE: -->Python Interpreter Initialized<--
  159. 20:16:33 T:6380  NOTICE: Artwork Downloader: ## Service - Run at startup: False
  160. 20:16:33 T:6380  NOTICE: Artwork Downloader: ## Service - Delayed startup: -- minutes
  161. 20:16:33 T:6380  NOTICE: Artwork Downloader: ## Service - Run as service: False
  162. 20:16:33 T:6380  NOTICE: Artwork Downloader: ## Service - Time: 00:00
  163. 20:16:33 T:5568  NOTICE:  StorageServer Module loaded RUN
  164. 20:16:33 T:5568  NOTICE: StorageClient-0.9.2 Starting server
  165. 20:16:33 T:5568  NOTICE: StorageServer-0.9.2 Storage Server starting C:\Users\Pearce\AppData\Roaming\XBMC\userdata\Database\commoncache.db
  166. 20:16:33 T:5160   ERROR: CRemoteControl::Connect - failed to connect
  167. 20:16:40 T:6316  NOTICE: CVideoDatabase::CleanDatabase: Starting videodatabase cleanup ..
  168. 20:16:40 T:6316  NOTICE: CVideoDatabase::CleanDatabase: Cleaning videodatabase done. Operation took 00:00
  169. 20:16:40 T:6316  NOTICE: VideoInfoScanner: Finished scan. Scanning for video info took 00:07
  170. 20:16:42 T:4172  NOTICE: -->Python Interpreter Initialized<--
  171. 20:16:56 T:5736 WARNING: XFILE::CFileFactory::CreateLoader - Unsupported protocol(addons) in addons://more/executable.tbn
  172. 20:17:00 T:1916  NOTICE: -->Python Interpreter Initialized<--
  173. 20:17:00 T:6756  NOTICE: -->Python Interpreter Initialized<--
  174. 20:17:01 T:6756   ERROR: C:\Users\Pearce\AppData\Roaming\XBMC\addons\script.pseudotv\resources\lib\Overlay.py:70: DeprecationWarning: object.__init__() takes no parameters
  175.                                               xbmcgui.WindowXMLDialog.__init__(self, *args, **kwargs)
  176. 20:17:01 T:6756   ERROR: C:\Users\Pearce\AppData\Roaming\XBMC\addons\script.pseudotv\resources\lib\Overlay.py:41: DeprecationWarning: object.__init__() takes no parameters
  177.                                               xbmc.Player.__init__(self, xbmc.PLAYER_CORE_AUTO)
  178. 20:17:01 T:6756   ERROR: script.pseudotv-ChannelList: makeChannelList Problem parsing playlist C:\Users\Pearce\AppData\Roaming\XBMC\userdata\addon_data\script.pseudotv\cache/stored/Daily Report.xsp
  179. 20:17:01 T:6756   ERROR: script.pseudotv-ChannelList: getSmartPlaylistName Problem parsing playlist C:\Users\Pearce\AppData\Roaming\XBMC\userdata\playlists\video\Daily Report.xsp
  180. 20:17:01 T:6756   ERROR: script.pseudotv-ChannelList: makeChannelList Problem parsing playlist C:\Users\Pearce\AppData\Roaming\XBMC\userdata\addon_data\script.pseudotv\cache/stored/Daily Report.xsp
  181. 20:17:01 T:6756   ERROR: script.pseudotv-ChannelList: getSmartPlaylistName Problem parsing playlist C:\Users\Pearce\AppData\Roaming\XBMC\userdata\playlists\video\Daily Report.xsp
  182. 20:17:01 T:5804  NOTICE: DVDPlayer: Opening: C:\Users\Pearce\Videos\Movies\Braveheart\Braveheart.wmv
  183. 20:17:01 T:5804 WARNING: CDVDMessageQueue(player)::Put MSGQ_NOT_INITIALIZED
  184. 20:17:01 T:1384  NOTICE: Creating InputStream
  185. 20:17:01 T:1384  NOTICE: Creating Demuxer
  186. 20:17:01 T:1384  NOTICE: Opening video stream: 2 source: 256
  187. 20:17:01 T:1384  NOTICE: Creating video codec with codec id: 73
  188. 20:17:01 T:1384  NOTICE: CDVDVideoCodecFFmpeg::Open() Using codec: SMPTE VC-1
  189. 20:17:01 T:1384  NOTICE: Creating video thread
  190. 20:17:01 T:1384  NOTICE: Opening audio stream: 0 source: 256
  191. 20:17:01 T:1384  NOTICE: Finding audio codec for: 86056
  192. 20:17:01 T:4012  NOTICE: running thread: video_thread
  193. 20:17:01 T:1384  NOTICE: Creating audio thread
  194. 20:17:01 T:5560  NOTICE: running thread: CDVDPlayerAudio::Process()
  195. 20:17:01 T:5560  NOTICE: Creating audio device with codec id: 86056, channels: 6, sample rate: 48000, no pass-through
  196. 20:17:01 T:4012  NOTICE:  fps: 23.976024, pwidth: 1280, pheight: 720, dwidth: 1280, dheight: 720
  197. 20:17:01 T:4012  NOTICE: Display resolution USER : 1920x1080 @ 30.00i - Full Screen #2 (13)
  198. 20:17:01 T:4012  NOTICE: D3D: rendering method forced to DXVA2 processor
  199. 20:17:01 T:4012 WARNING: DXVA - decoder problem of status 2 with 255
  200. 20:17:01 T:5560   ERROR: CDVDPlayerAudio::DecodeFrame - Decode Error. Skipping audio packet
  201. 20:17:07 T:5804  NOTICE: DVDPlayer: Opening: F:\Movies\Indiana Jones and the Raiders of the Lost Ark\Indiana Jones and the Raiders of the Lost Ark.m2ts
  202. 20:17:07 T:5804  NOTICE: CDVDPlayer::CloseFile()
  203. 20:17:07 T:5804  NOTICE: DVDPlayer: waiting for threads to exit
  204. 20:17:07 T:1384  NOTICE: CDVDPlayer::OnExit()
  205. 20:17:07 T:1384  NOTICE: DVDPlayer: closing audio stream
  206. 20:17:07 T:1384  NOTICE: Closing audio stream
  207. 20:17:07 T:1384  NOTICE: Waiting for audio thread to exit
  208. 20:17:07 T:5560  NOTICE: thread end: CDVDPlayerAudio::OnExit()
  209. 20:17:07 T:1384  NOTICE: Closing audio device
  210. 20:17:07 T:1384  NOTICE: Deleting audio codec
  211. 20:17:07 T:1384  NOTICE: DVDPlayer: closing video stream
  212. 20:17:07 T:1384  NOTICE: Closing video stream
  213. 20:17:07 T:1384  NOTICE: waiting for video thread to exit
  214. 20:17:07 T:4012  NOTICE: thread end: video_thread
  215. 20:17:07 T:1384  NOTICE: deleting video codec
  216. 20:17:07 T:1384  NOTICE: CDVDPlayer::OnExit() deleting demuxer
  217. 20:17:07 T:1384  NOTICE: CDVDPlayer::OnExit() deleting input stream
  218. 20:17:07 T:5804  NOTICE: DVDPlayer: finished waiting
  219. 20:17:07 T:5804 WARNING: CDVDMessageQueue(player)::Put MSGQ_NOT_INITIALIZED
  220. 20:17:07 T:6056  NOTICE: Creating InputStream
  221. 20:17:07 T:6056  NOTICE: Creating Demuxer
  222. 20:17:07 T:6056  NOTICE: Opening video stream: 0 source: 256
  223. 20:17:07 T:6056  NOTICE: Creating video codec with codec id: 28
  224. 20:17:07 T:6056  NOTICE: CDVDVideoCodecFFmpeg::Open() Using codec: H.264 / AVC / MPEG-4 AVC / MPEG-4 part 10
  225. 20:17:07 T:6056  NOTICE: Creating video thread
  226. 20:17:07 T:6056  NOTICE: Opening audio stream: 1 source: 256
  227. 20:17:07 T:6056  NOTICE: Finding audio codec for: 86019
  228. 20:17:07 T:3392  NOTICE: running thread: video_thread
  229. 20:17:07 T:6056  NOTICE: Creating audio thread
  230. 20:17:07 T:6572  NOTICE: running thread: CDVDPlayerAudio::Process()
  231. 20:17:07 T:6572  NOTICE: Creating audio device with codec id: 86019, channels: 2, sample rate: 48000, pass-through
  232. 20:17:07 T:3392  NOTICE:  fps: 23.976024, pwidth: 1920, pheight: 1080, dwidth: 1920, dheight: 1080
  233. 20:17:07 T:3392  NOTICE: Display resolution USER : 1920x1080 @ 30.00i - Full Screen #2 (13)
  234. 20:17:07 T:3392  NOTICE: D3D: rendering method forced to DXVA2 processor
  235. 20:17:18 T:5804  NOTICE: DVDPlayer: Opening: F:\New Movies\Gremlins 2 The New Batch (1990)\Gremlins 2 The New Batch.mkv
  236. 20:17:18 T:5804  NOTICE: CDVDPlayer::CloseFile()
  237. 20:17:18 T:5804  NOTICE: DVDPlayer: waiting for threads to exit
  238. 20:17:18 T:6056  NOTICE: CDVDPlayer::OnExit()
  239. 20:17:18 T:6056  NOTICE: DVDPlayer: closing audio stream
  240. 20:17:18 T:6056  NOTICE: Closing audio stream
  241. 20:17:18 T:6056  NOTICE: Waiting for audio thread to exit
  242. 20:17:18 T:6572  NOTICE: thread end: CDVDPlayerAudio::OnExit()
  243. 20:17:18 T:6056  NOTICE: Closing audio device
  244. 20:17:18 T:6056  NOTICE: Deleting audio codec
  245. 20:17:18 T:6056  NOTICE: DVDPlayer: closing video stream
  246. 20:17:18 T:6056  NOTICE: Closing video stream
  247. 20:17:18 T:6056  NOTICE: waiting for video thread to exit
  248. 20:17:18 T:3392  NOTICE: thread end: video_thread
  249. 20:17:18 T:6056  NOTICE: deleting video codec
  250. 20:17:18 T:6056  NOTICE: CDVDPlayer::OnExit() deleting demuxer
  251. 20:17:18 T:6056  NOTICE: CDVDPlayer::OnExit() deleting input stream
  252. 20:17:18 T:5804  NOTICE: DVDPlayer: finished waiting
  253. 20:17:18 T:5804 WARNING: CDVDMessageQueue(player)::Put MSGQ_NOT_INITIALIZED
  254. 20:17:18 T:5200  NOTICE: Creating InputStream
  255. 20:17:18 T:5200  NOTICE: Creating Demuxer
  256. 20:17:18 T:5200  NOTICE: Opening video stream: 1 source: 256
  257. 20:17:18 T:5200  NOTICE: Creating video codec with codec id: 28
  258. 20:17:18 T:5200  NOTICE: CDVDVideoCodecFFmpeg::Open() Using codec: H.264 / AVC / MPEG-4 AVC / MPEG-4 part 10
  259. 20:17:18 T:5200  NOTICE: Creating video thread
  260. 20:17:18 T:5200  NOTICE: Opening audio stream: 0 source: 256
  261. 20:17:18 T:5200  NOTICE: Finding audio codec for: 86019
  262. 20:17:18 T:3332  NOTICE: running thread: video_thread
  263. 20:17:18 T:5200  NOTICE: Creating audio thread
  264. 20:17:18 T:6852  NOTICE: running thread: CDVDPlayerAudio::Process()
  265. 20:17:18 T:6852  NOTICE: Creating audio device with codec id: 86019, channels: 2, sample rate: 48000, pass-through
  266. 20:17:18 T:3332  NOTICE:  fps: 23.976024, pwidth: 1280, pheight: 704, dwidth: 1280, dheight: 704
  267. 20:17:18 T:3332  NOTICE: Display resolution USER : 1920x1080 @ 30.00i - Full Screen #2 (13)
  268. 20:17:18 T:3332  NOTICE: D3D: rendering method forced to DXVA2 processor
  269. 20:17:19 T:6852 WARNING: CDVDMessageQueue(audio)::Get - asked for new data packet, with nothing available
  270. 20:17:21 T:5804 WARNING: Previous line repeats 7 times.
  271. 20:17:21 T:5804  NOTICE: DVDPlayer: Opening: F:\Movies\The Truman Show (1998, HD)\The Truman Show (1998, HD).mkv
  272. 20:17:21 T:5804  NOTICE: CDVDPlayer::CloseFile()
  273. 20:17:21 T:5804  NOTICE: DVDPlayer: waiting for threads to exit
  274. 20:17:21 T:5200  NOTICE: CDVDPlayer::OnExit()
  275. 20:17:21 T:5200  NOTICE: DVDPlayer: closing audio stream
  276. 20:17:21 T:5200  NOTICE: Closing audio stream
  277. 20:17:21 T:5200  NOTICE: Waiting for audio thread to exit
  278. 20:17:21 T:6852  NOTICE: thread end: CDVDPlayerAudio::OnExit()
  279. 20:17:21 T:5200  NOTICE: Closing audio device
  280. 20:17:22 T:5200  NOTICE: Deleting audio codec
  281. 20:17:22 T:5200  NOTICE: DVDPlayer: closing video stream
  282. 20:17:22 T:5200  NOTICE: Closing video stream
  283. 20:17:22 T:5200  NOTICE: waiting for video thread to exit
  284. 20:17:22 T:3332  NOTICE: thread end: video_thread
  285. 20:17:22 T:5200  NOTICE: deleting video codec
  286. 20:17:22 T:5200  NOTICE: CDVDPlayer::OnExit() deleting demuxer
  287. 20:17:22 T:5200  NOTICE: CDVDPlayer::OnExit() deleting input stream
  288. 20:17:22 T:5804  NOTICE: DVDPlayer: finished waiting
  289. 20:17:22 T:5804 WARNING: CDVDMessageQueue(player)::Put MSGQ_NOT_INITIALIZED
  290. 20:17:22 T:4576  NOTICE: Creating InputStream
  291. 20:17:22 T:4576  NOTICE: Creating Demuxer
  292. 20:17:22 T:4576  NOTICE: Opening video stream: 0 source: 256
  293. 20:17:22 T:4576  NOTICE: Creating video codec with codec id: 28
  294. 20:17:22 T:4576  NOTICE: CDVDVideoCodecFFmpeg::Open() Using codec: H.264 / AVC / MPEG-4 AVC / MPEG-4 part 10
  295. 20:17:22 T:4576  NOTICE: Creating video thread
  296. 20:17:22 T:4576  NOTICE: Opening audio stream: 1 source: 256
  297. 20:17:22 T:4576  NOTICE: Finding audio codec for: 86019
  298. 20:17:22 T:6156  NOTICE: running thread: video_thread
  299. 20:17:22 T:4576  NOTICE: Creating audio thread
  300. 20:17:22 T:5964  NOTICE: running thread: CDVDPlayerAudio::Process()
  301. 20:17:22 T:5964  NOTICE: Creating audio device with codec id: 86019, channels: 2, sample rate: 48000, pass-through
  302. 20:17:22 T:5964 WARNING: CDVDMessageQueue(audio)::Get - asked for new data packet, with nothing available
  303. 20:17:22 T:6156  NOTICE:  fps: 23.976024, pwidth: 1280, pheight: 720, dwidth: 1280, dheight: 720
  304. 20:17:22 T:6156  NOTICE: Display resolution USER : 1920x1080 @ 30.00i - Full Screen #2 (13)
  305. 20:17:22 T:6156  NOTICE: D3D: rendering method forced to DXVA2 processor
  306. 20:17:22 T:5964 WARNING: CDVDMessageQueue(audio)::Get - asked for new data packet, with nothing available
  307. 20:17:25 T:5804 WARNING: Previous line repeats 1 times.
  308. 20:17:25 T:5804  NOTICE: DVDPlayer: Opening: F:\Movies\Predator\Predator Ultimate Hunter Edition.mp4
  309. 20:17:25 T:5804  NOTICE: CDVDPlayer::CloseFile()
  310. 20:17:25 T:5804  NOTICE: DVDPlayer: waiting for threads to exit
  311. 20:17:25 T:4576  NOTICE: CDVDPlayer::OnExit()
  312. 20:17:25 T:4576  NOTICE: DVDPlayer: closing audio stream
  313. 20:17:25 T:4576  NOTICE: Closing audio stream
  314. 20:17:25 T:4576  NOTICE: Waiting for audio thread to exit
  315. 20:17:25 T:5964  NOTICE: thread end: CDVDPlayerAudio::OnExit()
  316. 20:17:25 T:4576  NOTICE: Closing audio device
  317. 20:17:25 T:4576  NOTICE: Deleting audio codec
  318. 20:17:25 T:4576  NOTICE: DVDPlayer: closing video stream
  319. 20:17:25 T:4576  NOTICE: Closing video stream
  320. 20:17:25 T:4576  NOTICE: waiting for video thread to exit
  321. 20:17:25 T:6156  NOTICE: thread end: video_thread
  322. 20:17:25 T:4576  NOTICE: deleting video codec
  323. 20:17:25 T:4576  NOTICE: CDVDPlayer::OnExit() deleting demuxer
  324. 20:17:25 T:4576  NOTICE: CDVDPlayer::OnExit() deleting input stream
  325. 20:17:25 T:5804  NOTICE: DVDPlayer: finished waiting
  326. 20:17:25 T:5804 WARNING: CDVDMessageQueue(player)::Put MSGQ_NOT_INITIALIZED
  327. 20:17:25 T:4456  NOTICE: Creating InputStream
  328. 20:17:25 T:4456  NOTICE: Creating Demuxer
  329. 20:17:25 T:4456  NOTICE: Opening video stream: 0 source: 256
  330. 20:17:25 T:4456  NOTICE: Creating video codec with codec id: 28
  331. 20:17:25 T:4456  NOTICE: CDVDVideoCodecFFmpeg::Open() Using codec: H.264 / AVC / MPEG-4 AVC / MPEG-4 part 10
  332. 20:17:25 T:4456  NOTICE: Creating video thread
  333. 20:17:25 T:4456  NOTICE: Opening audio stream: 1 source: 256
  334. 20:17:25 T:4456  NOTICE: Finding audio codec for: 86018
  335. 20:17:25 T:6052  NOTICE: running thread: video_thread
  336. 20:17:25 T:4456  NOTICE: Creating audio thread
  337. 20:17:25 T:2224  NOTICE: running thread: CDVDPlayerAudio::Process()
  338. 20:17:25 T:4456 WARNING: CDVDPlayer::CheckContinuity - wrapback of stream:2, prev:83416.799964, curr:41708.399982, diff:-41708.399982
  339. 20:17:25 T:2224  NOTICE: Creating audio device with codec id: 86018, channels: 6, sample rate: 48000, no pass-through
  340. 20:17:25 T:2224 WARNING: CDVDMessageQueue(audio)::Get - asked for new data packet, with nothing available
  341. 20:17:25 T:6052 WARNING: Previous line repeats 1 times.
  342. 20:17:25 T:6052  NOTICE:  fps: 23.976024, pwidth: 1280, pheight: 688, dwidth: 1280, dheight: 688
  343. 20:17:25 T:6052  NOTICE: Display resolution USER : 1920x1080 @ 30.00i - Full Screen #2 (13)
  344. 20:17:25 T:6052  NOTICE: D3D: rendering method forced to DXVA2 processor
  345. 20:17:25 T:2224 WARNING: CDVDMessageQueue(audio)::Get - asked for new data packet, with nothing available
  346. 20:17:29 T:5804 WARNING: Previous line repeats 5 times.
  347. 20:17:29 T:5804  NOTICE: DVDPlayer: Opening: F:\Movies\Moneyball (2011)\Moneyball.2011.BluRay.1080p.x264.DTS-LTT.mkv
  348. 20:17:29 T:5804  NOTICE: CDVDPlayer::CloseFile()
  349. 20:17:29 T:5804  NOTICE: DVDPlayer: waiting for threads to exit
  350. 20:17:29 T:4456  NOTICE: CDVDPlayer::OnExit()
  351. 20:17:29 T:4456  NOTICE: DVDPlayer: closing audio stream
  352. 20:17:29 T:4456  NOTICE: Closing audio stream
  353. 20:17:29 T:4456  NOTICE: Waiting for audio thread to exit
  354. 20:17:29 T:2224  NOTICE: thread end: CDVDPlayerAudio::OnExit()
  355. 20:17:29 T:4456  NOTICE: Closing audio device
  356. 20:17:29 T:4456  NOTICE: Deleting audio codec
  357. 20:17:29 T:4456  NOTICE: DVDPlayer: closing video stream
  358. 20:17:29 T:4456  NOTICE: Closing video stream
  359. 20:17:29 T:4456  NOTICE: waiting for video thread to exit
  360. 20:17:29 T:6052  NOTICE: thread end: video_thread
  361. 20:17:29 T:4456  NOTICE: deleting video codec
  362. 20:17:29 T:4456  NOTICE: CDVDPlayer::OnExit() deleting demuxer
  363. 20:17:29 T:4456  NOTICE: CDVDPlayer::OnExit() deleting input stream
  364. 20:17:29 T:5804  NOTICE: DVDPlayer: finished waiting
  365. 20:17:29 T:5804 WARNING: CDVDMessageQueue(player)::Put MSGQ_NOT_INITIALIZED
  366. 20:17:29 T:6768  NOTICE: Creating InputStream
  367. 20:17:29 T:6768  NOTICE: Creating Demuxer
  368. 20:17:29 T:6768  NOTICE: Opening video stream: 0 source: 256
  369. 20:17:29 T:6768  NOTICE: Creating video codec with codec id: 28
  370. 20:17:29 T:6768  NOTICE: CDVDVideoCodecFFmpeg::Open() Using codec: H.264 / AVC / MPEG-4 AVC / MPEG-4 part 10
  371. 20:17:29 T:6768  NOTICE: Creating video thread
  372. 20:17:29 T:6768  NOTICE: Opening audio stream: 1 source: 256
  373. 20:17:29 T:6768  NOTICE: Finding audio codec for: 86020
  374. 20:17:29 T:5744  NOTICE: running thread: video_thread
  375. 20:17:29 T:6768  NOTICE: Creating audio thread
  376. 20:17:29 T:6768  NOTICE: Opening Subtitle stream: 2 source: 256
  377. 20:17:29 T:5532  NOTICE: running thread: CDVDPlayerAudio::Process()
  378. 20:17:29 T:5532  NOTICE: Creating audio device with codec id: 86020, channels: 2, sample rate: 48000, pass-through
  379. 20:17:29 T:5744  NOTICE:  fps: 23.976024, pwidth: 1920, pheight: 1040, dwidth: 1920, dheight: 1040
  380. 20:17:29 T:5744  NOTICE: Display resolution USER : 1920x1080 @ 30.00i - Full Screen #2 (13)
  381. 20:17:29 T:5744  NOTICE: D3D: rendering method forced to DXVA2 processor
  382. 20:17:29 T:5532   ERROR: CWin32WASAPI::Initialize: Could not initialize the WASAPI endpoint device. -2147024865
  383. 20:17:29 T:5532   ERROR: CWin32WASAPI::Initialize: WASAPI initialization failed.
  384. 20:17:31 T:5532   ERROR: CDVDAudio::AddPacketsRenderer - timeout adding data to renderer
  385. 20:17:31 T:5532   ERROR: CDVDAudio::AddPackets - failed to add leftover bytes to render
  386. 20:17:33 T:5532   ERROR: CDVDAudio::AddPacketsRenderer - timeout adding data to renderer
  387. 20:17:33 T:5532   ERROR: CDVDAudio::AddPackets - failed to add leftover bytes to render
  388. 20:17:35 T:5532   ERROR: CDVDAudio::AddPacketsRenderer - timeout adding data to renderer
  389. 20:17:35 T:5532   ERROR: CDVDAudio::AddPackets - failed to add leftover bytes to render
  390. 20:17:37 T:5532   ERROR: CDVDAudio::AddPacketsRenderer - timeout adding data to renderer
  391. 20:17:37 T:5532   ERROR: CDVDAudio::AddPackets - failed to add leftover bytes to render
  392. 20:17:38 T:5804  NOTICE: DVDPlayer: Opening: I:\TV\The Office\Season 1\The Office 1x2 - Diversity Day [BT].avi
  393. 20:17:38 T:5804  NOTICE: CDVDPlayer::CloseFile()
  394. 20:17:38 T:5804  NOTICE: DVDPlayer: waiting for threads to exit
  395. 20:17:38 T:6768  NOTICE: CDVDPlayer::OnExit()
  396. 20:17:38 T:6768  NOTICE: DVDPlayer: closing audio stream
  397. 20:17:38 T:6768  NOTICE: Closing audio stream
  398. 20:17:38 T:6768  NOTICE: Waiting for audio thread to exit
  399. 20:17:38 T:5532   ERROR: CDVDAudio::AddPackets - failed to add leftover bytes to render
  400. 20:17:38 T:5532  NOTICE: thread end: CDVDPlayerAudio::OnExit()
  401. 20:17:38 T:6768  NOTICE: Closing audio device
  402. 20:17:38 T:6768  NOTICE: Deleting audio codec
  403. 20:17:38 T:6768  NOTICE: DVDPlayer: closing video stream
  404. 20:17:38 T:6768  NOTICE: Closing video stream
  405. 20:17:38 T:6768  NOTICE: waiting for video thread to exit
  406. 20:17:38 T:5744  NOTICE: thread end: video_thread
  407. 20:17:38 T:6768  NOTICE: deleting video codec
  408. 20:17:38 T:6768  NOTICE: DVDPlayer: closing subtitle stream
  409. 20:17:38 T:6768  NOTICE: Closing subtitle stream
  410. 20:17:38 T:6768  NOTICE: CDVDPlayer::OnExit() deleting demuxer
  411. 20:17:38 T:6768  NOTICE: CDVDPlayer::OnExit() deleting input stream
  412. 20:17:38 T:5804  NOTICE: DVDPlayer: finished waiting
  413. 20:17:38 T:5804 WARNING: CDVDMessageQueue(player)::Put MSGQ_NOT_INITIALIZED
  414. 20:17:38 T:3328  NOTICE: Creating InputStream
  415. 20:17:38 T:3328  NOTICE: Creating Demuxer
  416. 20:17:38 T:3328  NOTICE: Opening video stream: 0 source: 256
  417. 20:17:38 T:3328  NOTICE: Creating video codec with codec id: 13
  418. 20:17:38 T:3328  NOTICE: CDVDVideoCodecFFmpeg::Open() Using codec: MPEG-4 part 2
  419. 20:17:38 T:3328  NOTICE: Creating video thread
  420. 20:17:38 T:3328  NOTICE: Opening audio stream: 1 source: 256
  421. 20:17:38 T:3328  NOTICE: Finding audio codec for: 86017
  422. 20:17:38 T:1400  NOTICE: running thread: video_thread
  423. 20:17:38 T:3328  NOTICE: Creating audio thread
  424. 20:17:38 T:1436  NOTICE: running thread: CDVDPlayerAudio::Process()
  425. 20:17:38 T:1436  NOTICE: Creating audio device with codec id: 86017, channels: 2, sample rate: 48000, no pass-through
  426. 20:17:38 T:1400  NOTICE:  fps: 23.976024, pwidth: 624, pheight: 352, dwidth: 624, dheight: 352
  427. 20:17:38 T:1400  NOTICE: Display resolution USER : 1920x1080 @ 30.00i - Full Screen #2 (13)
  428. 20:17:38 T:1436   ERROR: CWin32WASAPI::Initialize: Could not initialize the WASAPI endpoint device. -2147024865
  429. 20:17:38 T:1436   ERROR: CWin32WASAPI::Initialize: WASAPI initialization failed.
  430. 20:17:42 T:5804  NOTICE: DVDPlayer: Opening: F:\Movies\Let Me In (2010)\00000.m2ts
  431. 20:17:42 T:5804  NOTICE: CDVDPlayer::CloseFile()
  432. 20:17:42 T:5804  NOTICE: DVDPlayer: waiting for threads to exit
  433. 20:17:42 T:3328  NOTICE: CDVDPlayer::OnExit()
  434. 20:17:42 T:3328  NOTICE: DVDPlayer: closing audio stream
  435. 20:17:42 T:3328  NOTICE: Closing audio stream
  436. 20:17:42 T:3328  NOTICE: Waiting for audio thread to exit
  437. 20:17:42 T:1436   ERROR: CDVDAudio::AddPackets - failed to add leftover bytes to render
  438. 20:17:42 T:1436  NOTICE: thread end: CDVDPlayerAudio::OnExit()
  439. 20:17:42 T:3328  NOTICE: Closing audio device
  440. 20:17:42 T:3328  NOTICE: Deleting audio codec
  441. 20:17:42 T:3328  NOTICE: DVDPlayer: closing video stream
  442. 20:17:42 T:3328  NOTICE: Closing video stream
  443. 20:17:42 T:3328  NOTICE: waiting for video thread to exit
  444. 20:17:42 T:1400  NOTICE: thread end: video_thread
  445. 20:17:42 T:3328  NOTICE: deleting video codec
  446. 20:17:42 T:3328  NOTICE: CDVDPlayer::OnExit() deleting demuxer
  447. 20:17:42 T:3328  NOTICE: CDVDPlayer::OnExit() deleting input stream
  448. 20:17:42 T:5804  NOTICE: DVDPlayer: finished waiting
  449. 20:17:42 T:5804 WARNING: CDVDMessageQueue(player)::Put MSGQ_NOT_INITIALIZED
  450. 20:17:42 T:7016  NOTICE: Creating InputStream
  451. 20:17:42 T:7016  NOTICE: Creating Demuxer
  452. 20:17:42 T:7016  NOTICE: Opening video stream: 0 source: 256
  453. 20:17:42 T:7016  NOTICE: Creating video codec with codec id: 28
  454. 20:17:42 T:7016  NOTICE: CDVDVideoCodecFFmpeg::Open() Using codec: H.264 / AVC / MPEG-4 AVC / MPEG-4 part 10
  455. 20:17:42 T:7016  NOTICE: Creating video thread
  456. 20:17:42 T:7016  NOTICE: Opening audio stream: 1 source: 256
  457. 20:17:42 T:7016  NOTICE: Finding audio codec for: 86019
  458. 20:17:42 T:2404  NOTICE: running thread: video_thread
  459. 20:17:42 T:7016  NOTICE: Creating audio thread
  460. 20:17:42 T:7016  NOTICE: Opening Subtitle stream: 2 source: 256
  461. 20:17:42 T:6556  NOTICE: running thread: CDVDPlayerAudio::Process()
  462. 20:17:42 T:6556  NOTICE: Creating audio device with codec id: 86019, channels: 2, sample rate: 48000, pass-through
  463. 20:17:42 T:2404  NOTICE:  fps: 23.976024, pwidth: 1920, pheight: 1080, dwidth: 1920, dheight: 1080
  464. 20:17:42 T:2404  NOTICE: Display resolution USER : 1920x1080 @ 30.00i - Full Screen #2 (13)
  465. 20:17:42 T:2404  NOTICE: D3D: rendering method forced to DXVA2 processor
  466. 20:17:45 T:5804  NOTICE: DVDPlayer: Opening: F:\Movies\Gomorra (2008)\Gomorra (2008).avi
  467. 20:17:45 T:5804  NOTICE: CDVDPlayer::CloseFile()
  468. 20:17:45 T:5804  NOTICE: DVDPlayer: waiting for threads to exit
  469. 20:17:45 T:7016  NOTICE: CDVDPlayer::OnExit()
  470. 20:17:45 T:7016  NOTICE: DVDPlayer: closing audio stream
  471. 20:17:45 T:7016  NOTICE: Closing audio stream
  472. 20:17:45 T:7016  NOTICE: Waiting for audio thread to exit
  473. 20:17:45 T:6556  NOTICE: thread end: CDVDPlayerAudio::OnExit()
  474. 20:17:45 T:7016  NOTICE: Closing audio device
  475. 20:17:45 T:7016  NOTICE: Deleting audio codec
  476. 20:17:45 T:7016  NOTICE: DVDPlayer: closing video stream
  477. 20:17:45 T:7016  NOTICE: Closing video stream
  478. 20:17:45 T:7016  NOTICE: waiting for video thread to exit
  479. 20:17:45 T:2404  NOTICE: thread end: video_thread
  480. 20:17:45 T:7016  NOTICE: deleting video codec
  481. 20:17:45 T:7016  NOTICE: DVDPlayer: closing subtitle stream
  482. 20:17:45 T:7016  NOTICE: Closing subtitle stream
  483. 20:17:45 T:7016  NOTICE: CDVDPlayer::OnExit() deleting demuxer
  484. 20:17:45 T:7016  NOTICE: CDVDPlayer::OnExit() deleting input stream
  485. 20:17:45 T:5804  NOTICE: DVDPlayer: finished waiting
  486. 20:17:45 T:5804 WARNING: CDVDMessageQueue(player)::Put MSGQ_NOT_INITIALIZED
  487. 20:17:45 T:4468  NOTICE: Creating InputStream
  488. 20:17:45 T:4468  NOTICE: Creating Demuxer
  489. 20:17:46 T:4468  NOTICE: Opening video stream: 0 source: 256
  490. 20:17:46 T:4468  NOTICE: Creating video codec with codec id: 13
  491. 20:17:46 T:4468  NOTICE: CDVDVideoCodecFFmpeg::Open() Using codec: MPEG-4 part 2
  492. 20:17:46 T:4468  NOTICE: Creating video thread
  493. 20:17:46 T:4468  NOTICE: Opening audio stream: 1 source: 256
  494. 20:17:46 T:4468  NOTICE: Finding audio codec for: 86017
  495. 20:17:46 T:1072  NOTICE: running thread: video_thread
  496. 20:17:46 T:4468  NOTICE: Creating audio thread
  497. 20:17:46 T:4680  NOTICE: running thread: CDVDPlayerAudio::Process()
  498. 20:17:46 T:4680  NOTICE: Creating audio device with codec id: 86017, channels: 2, sample rate: 44100, no pass-through
  499. 20:17:46 T:1072  NOTICE:  fps: 25.000000, pwidth: 720, pheight: 480, dwidth: 720, dheight: 480
  500. 20:17:46 T:1072  NOTICE: Display resolution USER : 1920x1080 @ 30.00i - Full Screen #2 (13)
  501. 20:17:49 T:5804  NOTICE: DVDPlayer: Opening: I:\Movies\The Bourne Ultimatum\The Bourne Ultimatum.wmv
  502. 20:17:49 T:5804  NOTICE: CDVDPlayer::CloseFile()
  503. 20:17:49 T:5804  NOTICE: DVDPlayer: waiting for threads to exit
  504. 20:17:49 T:4468  NOTICE: CDVDPlayer::OnExit()
  505. 20:17:49 T:4468  NOTICE: DVDPlayer: closing audio stream
  506. 20:17:49 T:4468  NOTICE: Closing audio stream
  507. 20:17:49 T:4468  NOTICE: Waiting for audio thread to exit
  508. 20:17:49 T:4680   ERROR: CDVDAudio::AddPackets - failed to add leftover bytes to render
  509. 20:17:49 T:4680  NOTICE: thread end: CDVDPlayerAudio::OnExit()
  510. 20:17:49 T:4468  NOTICE: Closing audio device
  511. 20:17:49 T:4468  NOTICE: Deleting audio codec
  512. 20:17:49 T:4468  NOTICE: DVDPlayer: closing video stream
  513. 20:17:49 T:4468  NOTICE: Closing video stream
  514. 20:17:49 T:4468  NOTICE: waiting for video thread to exit
  515. 20:17:49 T:1072  NOTICE: thread end: video_thread
  516. 20:17:49 T:4468  NOTICE: deleting video codec
  517. 20:17:49 T:4468  NOTICE: CDVDPlayer::OnExit() deleting demuxer
  518. 20:17:49 T:4468  NOTICE: CDVDPlayer::OnExit() deleting input stream
  519. 20:17:49 T:5804  NOTICE: DVDPlayer: finished waiting
  520. 20:17:49 T:5804 WARNING: CDVDMessageQueue(player)::Put MSGQ_NOT_INITIALIZED
  521. 20:17:49 T:6072  NOTICE: Creating InputStream
  522. 20:17:49 T:6072  NOTICE: Creating Demuxer
  523. 20:17:49 T:6072  NOTICE: Opening video stream: 2 source: 256
  524. 20:17:49 T:6072  NOTICE: Creating video codec with codec id: 73
  525. 20:17:49 T:6072  NOTICE: CDVDVideoCodecFFmpeg::Open() Using codec: SMPTE VC-1
  526. 20:17:49 T:6072  NOTICE: Creating video thread
  527. 20:17:49 T:6072  NOTICE: Opening audio stream: 0 source: 256
  528. 20:17:49 T:6072  NOTICE: Finding audio codec for: 86056
  529. 20:17:49 T:3596  NOTICE: running thread: video_thread
  530. 20:17:49 T:6072  NOTICE: Creating audio thread
  531. 20:17:49 T:4516  NOTICE: running thread: CDVDPlayerAudio::Process()
  532. 20:17:49 T:4516  NOTICE: Creating audio device with codec id: 86056, channels: 6, sample rate: 48000, no pass-through
  533. 20:17:49 T:3596  NOTICE:  fps: 23.976024, pwidth: 1920, pheight: 1080, dwidth: 1920, dheight: 1080
  534. 20:17:49 T:3596  NOTICE: Display resolution USER : 1920x1080 @ 30.00i - Full Screen #2 (13)
  535. 20:17:49 T:3596  NOTICE: D3D: rendering method forced to DXVA2 processor
  536. 20:17:52 T:5804  NOTICE: DVDPlayer: Opening: I:\Movies\Mr. Nobody\Mr.Nobody.2009.Extended.720p.BluRay.x264-CiNEFiLE.mpg
  537. 20:17:52 T:5804  NOTICE: CDVDPlayer::CloseFile()
  538. 20:17:52 T:5804  NOTICE: DVDPlayer: waiting for threads to exit
  539. 20:17:52 T:6072  NOTICE: CDVDPlayer::OnExit()
  540. 20:17:52 T:6072  NOTICE: DVDPlayer: closing audio stream
  541. 20:17:52 T:6072  NOTICE: Closing audio stream
  542. 20:17:52 T:6072  NOTICE: Waiting for audio thread to exit
  543. 20:17:52 T:4516  NOTICE: thread end: CDVDPlayerAudio::OnExit()
  544. 20:17:52 T:6072  NOTICE: Closing audio device
  545. 20:17:52 T:6072  NOTICE: Deleting audio codec
  546. 20:17:52 T:6072  NOTICE: DVDPlayer: closing video stream
  547. 20:17:52 T:6072  NOTICE: Closing video stream
  548. 20:17:52 T:6072  NOTICE: waiting for video thread to exit
  549. 20:17:52 T:3596  NOTICE: thread end: video_thread
  550. 20:17:52 T:6072  NOTICE: deleting video codec
  551. 20:17:52 T:6072  NOTICE: CDVDPlayer::OnExit() deleting demuxer
  552. 20:17:52 T:6072  NOTICE: CDVDPlayer::OnExit() deleting input stream
  553. 20:17:52 T:5804  NOTICE: DVDPlayer: finished waiting
  554. 20:17:52 T:5804 WARNING: CDVDMessageQueue(player)::Put MSGQ_NOT_INITIALIZED
  555. 20:17:52 T:6336  NOTICE: Creating InputStream
  556. 20:17:52 T:6336  NOTICE: Creating Demuxer
  557. 20:17:52 T:6336  NOTICE: Opening video stream: 0 source: 256
  558. 20:17:52 T:6336  NOTICE: Creating video codec with codec id: 28
  559. 20:17:52 T:6336  NOTICE: CDVDVideoCodecFFmpeg::Open() Using codec: H.264 / AVC / MPEG-4 AVC / MPEG-4 part 10
  560. 20:17:52 T:6336  NOTICE: Creating video thread
  561. 20:17:52 T:6336  NOTICE: Opening audio stream: 1 source: 256
  562. 20:17:52 T:6336  NOTICE: Finding audio codec for: 86019
  563. 20:17:52 T:6272  NOTICE: running thread: video_thread
  564. 20:17:52 T:6336  NOTICE: Creating audio thread
  565. 20:17:52 T:1916  NOTICE: running thread: CDVDPlayerAudio::Process()
  566. 20:17:52 T:1916  NOTICE: Creating audio device with codec id: 86019, channels: 2, sample rate: 48000, pass-through
  567. 20:17:52 T:6272  NOTICE:  fps: 24.000000, pwidth: 1280, pheight: 544, dwidth: 1280, dheight: 544
  568. 20:17:52 T:6272  NOTICE: Display resolution USER : 1920x1080 @ 30.00i - Full Screen #2 (13)
  569. 20:17:52 T:6272  NOTICE: D3D: rendering method forced to DXVA2 processor
  570. 20:17:52 T:1916   ERROR: CWin32WASAPI::Initialize: Could not initialize the WASAPI endpoint device. -2147024865
  571. 20:17:52 T:1916   ERROR: CWin32WASAPI::Initialize: WASAPI initialization failed.
  572. 20:17:55 T:1916   ERROR: CDVDAudio::AddPacketsRenderer - timeout adding data to renderer
  573. 20:17:55 T:1916   ERROR: CDVDAudio::AddPackets - failed to add leftover bytes to render
  574. 20:17:57 T:5804  NOTICE: DVDPlayer: Opening: C:\Users\Pearce\Videos\Movies\13 Assassins (2010)\13.Assassins.2010.720p.BDRip.XviD.AC3-ViSiON.avi
  575. 20:17:57 T:5804  NOTICE: CDVDPlayer::CloseFile()
  576. 20:17:57 T:5804  NOTICE: DVDPlayer: waiting for threads to exit
  577. 20:17:57 T:6336  NOTICE: CDVDPlayer::OnExit()
  578. 20:17:57 T:6336  NOTICE: DVDPlayer: closing audio stream
  579. 20:17:57 T:6336  NOTICE: Closing audio stream
  580. 20:17:57 T:6336  NOTICE: Waiting for audio thread to exit
  581. 20:17:57 T:1916   ERROR: CDVDAudio::AddPackets - failed to add leftover bytes to render
  582. 20:17:57 T:1916  NOTICE: thread end: CDVDPlayerAudio::OnExit()
  583. 20:17:57 T:6336  NOTICE: Closing audio device
  584. 20:17:57 T:6336  NOTICE: Deleting audio codec
  585. 20:17:57 T:6336  NOTICE: DVDPlayer: closing video stream
  586. 20:17:57 T:6336  NOTICE: Closing video stream
  587. 20:17:57 T:6336  NOTICE: waiting for video thread to exit
  588. 20:17:57 T:6272  NOTICE: thread end: video_thread
  589. 20:17:57 T:6336  NOTICE: deleting video codec
  590. 20:17:57 T:6336  NOTICE: CDVDPlayer::OnExit() deleting demuxer
  591. 20:17:57 T:6336  NOTICE: CDVDPlayer::OnExit() deleting input stream
  592. 20:17:57 T:5804  NOTICE: DVDPlayer: finished waiting
  593. 20:17:57 T:5804 WARNING: CDVDMessageQueue(player)::Put MSGQ_NOT_INITIALIZED
  594. 20:17:57 T:2800  NOTICE: Creating InputStream
  595. 20:17:57 T:2800  NOTICE: Creating Demuxer
  596. 20:17:57 T:2800  NOTICE: Opening video stream: 0 source: 256
  597. 20:17:57 T:2800  NOTICE: Creating video codec with codec id: 13
  598. 20:17:57 T:2800  NOTICE: CDVDVideoCodecFFmpeg::Open() Using codec: MPEG-4 part 2
  599. 20:17:57 T:2800  NOTICE: Creating video thread
  600. 20:17:57 T:2800  NOTICE: Opening audio stream: 1 source: 256
  601. 20:17:57 T:2800  NOTICE: Finding audio codec for: 86019
  602. 20:17:57 T:3104  NOTICE: running thread: video_thread
  603. 20:17:57 T:2800  NOTICE: Creating audio thread
  604. 20:17:57 T:2800  NOTICE: Opening Subtitle stream: 0 source: 1024
  605. 20:17:57 T:1108  NOTICE: running thread: CDVDPlayerAudio::Process()
  606. 20:17:57 T:1108  NOTICE: Creating audio device with codec id: 86019, channels: 2, sample rate: 48000, pass-through
  607. 20:17:57 T:1108   ERROR: CWin32WASAPI::Initialize: Could not initialize the WASAPI endpoint device. -2147024865
  608. 20:17:57 T:1108   ERROR: CWin32WASAPI::Initialize: WASAPI initialization failed.
  609. 20:17:57 T:3104  NOTICE:  fps: 23.976024, pwidth: 1280, pheight: 534, dwidth: 1280, dheight: 534
  610. 20:17:57 T:3104  NOTICE: Display resolution USER : 1920x1080 @ 30.00i - Full Screen #2 (13)
  611. 20:17:58 T:5804   ERROR: Texture manager unable to load file: C:\Users\Pearce\AppData\Roaming\XBMC\addons\script.pseudotv\resources\images\Foreign Movies.png
  612. 20:18:00 T:1108   ERROR: Previous line repeats 1 times.
  613. 20:18:00 T:1108   ERROR: CDVDAudio::AddPacketsRenderer - timeout adding data to renderer
  614. 20:18:00 T:1108   ERROR: CDVDAudio::AddPackets - failed to add leftover bytes to render
  615. 20:18:02 T:1108   ERROR: CDVDAudio::AddPacketsRenderer - timeout adding data to renderer
  616. 20:18:02 T:1108   ERROR: CDVDAudio::AddPackets - failed to add leftover bytes to render
  617. 20:18:03 T:5804  NOTICE: DVDPlayer: Opening: C:\Users\Pearce\Videos\Movies\American Gangster\American Gangster.m2ts
  618. 20:18:03 T:5804  NOTICE: CDVDPlayer::CloseFile()
  619. 20:18:03 T:5804  NOTICE: DVDPlayer: waiting for threads to exit
  620. 20:18:03 T:2800  NOTICE: CDVDPlayer::OnExit()
  621. 20:18:03 T:2800  NOTICE: DVDPlayer: closing audio stream
  622. 20:18:03 T:2800  NOTICE: Closing audio stream
  623. 20:18:03 T:2800  NOTICE: Waiting for audio thread to exit
  624. 20:18:03 T:1108   ERROR: CDVDAudio::AddPackets - failed to add leftover bytes to render
  625. 20:18:03 T:1108  NOTICE: thread end: CDVDPlayerAudio::OnExit()
  626. 20:18:03 T:2800  NOTICE: Closing audio device
  627. 20:18:03 T:2800  NOTICE: Deleting audio codec
  628. 20:18:03 T:2800  NOTICE: DVDPlayer: closing video stream
  629. 20:18:03 T:2800  NOTICE: Closing video stream
  630. 20:18:03 T:2800  NOTICE: waiting for video thread to exit
  631. 20:18:04 T:3104  NOTICE: thread end: video_thread
  632. 20:18:04 T:2800  NOTICE: deleting video codec
  633. 20:18:04 T:2800  NOTICE: DVDPlayer: closing subtitle stream
  634. 20:18:04 T:2800  NOTICE: Closing subtitle stream
  635. 20:18:04 T:2800  NOTICE: CDVDPlayer::OnExit() deleting demuxer
  636. 20:18:04 T:2800  NOTICE: CDVDPlayer::OnExit() deleting input stream
  637. 20:18:04 T:5804  NOTICE: DVDPlayer: finished waiting
  638. 20:18:04 T:5804 WARNING: CDVDMessageQueue(player)::Put MSGQ_NOT_INITIALIZED
  639. 20:18:04 T:5128  NOTICE: Creating InputStream
  640. 20:18:04 T:5128  NOTICE: Creating Demuxer
  641. 20:18:04 T:5128  NOTICE: Opening video stream: 0 source: 256
  642. 20:18:04 T:5128  NOTICE: Creating video codec with codec id: 28
  643. 20:18:04 T:5128  NOTICE: CDVDVideoCodecFFmpeg::Open() Using codec: H.264 / AVC / MPEG-4 AVC / MPEG-4 part 10
  644. 20:18:04 T:5128  NOTICE: Creating video thread
  645. 20:18:04 T:5128  NOTICE: Opening audio stream: 1 source: 256
  646. 20:18:04 T:5128  NOTICE: Finding audio codec for: 86019
  647. 20:18:04 T:4128  NOTICE: running thread: video_thread
  648. 20:18:04 T:5128  NOTICE: Creating audio thread
  649. 20:18:04 T:3392  NOTICE: running thread: CDVDPlayerAudio::Process()
  650. 20:18:04 T:3392  NOTICE: Creating audio device with codec id: 86019, channels: 2, sample rate: 48000, pass-through
  651. 20:18:04 T:3392   ERROR: CWin32WASAPI::Initialize: Could not initialize the WASAPI endpoint device. -2147024865
  652. 20:18:04 T:3392   ERROR: CWin32WASAPI::Initialize: WASAPI initialization failed.
  653. 20:18:04 T:4128  NOTICE:  fps: 23.976024, pwidth: 1920, pheight: 1080, dwidth: 1920, dheight: 1080
  654. 20:18:04 T:4128  NOTICE: Display resolution USER : 1920x1080 @ 30.00i - Full Screen #2 (13)
  655. 20:18:04 T:4128  NOTICE: D3D: rendering method forced to DXVA2 processor
  656. 20:18:06 T:3392   ERROR: CDVDAudio::AddPacketsRenderer - timeout adding data to renderer
  657. 20:18:06 T:3392   ERROR: CDVDAudio::AddPackets - failed to add leftover bytes to render
  658. 20:18:08 T:3392   ERROR: CDVDAudio::AddPacketsRenderer - timeout adding data to renderer
  659. 20:18:08 T:3392   ERROR: CDVDAudio::AddPackets - failed to add leftover bytes to render
  660. 20:18:10 T:5804  NOTICE: DVDPlayer: Opening: I:\Movies\Team America World Police (2004)\Team America World Police Unrated 2004 DVDRip H264 AAC-Lifechanger.mp4
  661. 20:18:10 T:5804  NOTICE: CDVDPlayer::CloseFile()
  662. 20:18:10 T:5804  NOTICE: DVDPlayer: waiting for threads to exit
  663. 20:18:10 T:5128  NOTICE: CDVDPlayer::OnExit()
  664. 20:18:10 T:5128  NOTICE: DVDPlayer: closing audio stream
  665. 20:18:10 T:5128  NOTICE: Closing audio stream
  666. 20:18:10 T:5128  NOTICE: Waiting for audio thread to exit
  667. 20:18:10 T:3392   ERROR: CDVDAudio::AddPackets - failed to add leftover bytes to render
  668. 20:18:10 T:3392  NOTICE: thread end: CDVDPlayerAudio::OnExit()
  669. 20:18:10 T:5128  NOTICE: Closing audio device
  670. 20:18:10 T:5128  NOTICE: Deleting audio codec
  671. 20:18:10 T:5128  NOTICE: DVDPlayer: closing video stream
  672. 20:18:10 T:5128  NOTICE: Closing video stream
  673. 20:18:10 T:5128  NOTICE: waiting for video thread to exit
  674. 20:18:10 T:4128  NOTICE: thread end: video_thread
  675. 20:18:10 T:5128  NOTICE: deleting video codec
  676. 20:18:10 T:5128  NOTICE: CDVDPlayer::OnExit() deleting demuxer
  677. 20:18:10 T:5128  NOTICE: CDVDPlayer::OnExit() deleting input stream
  678. 20:18:10 T:5804  NOTICE: DVDPlayer: finished waiting
  679. 20:18:10 T:5804 WARNING: CDVDMessageQueue(player)::Put MSGQ_NOT_INITIALIZED
  680. 20:18:10 T:5504  NOTICE: Creating InputStream
  681. 20:18:10 T:5504  NOTICE: Creating Demuxer
  682. 20:18:10 T:5504  NOTICE: Opening video stream: 0 source: 256
  683. 20:18:10 T:5504  NOTICE: Creating video codec with codec id: 28
  684. 20:18:10 T:5504  NOTICE: CDVDVideoCodecFFmpeg::Open() Using codec: H.264 / AVC / MPEG-4 AVC / MPEG-4 part 10
  685. 20:18:10 T:5504  NOTICE: Creating video thread
  686. 20:18:10 T:5504  NOTICE: Opening audio stream: 2 source: 256
  687. 20:18:10 T:5504  NOTICE: Finding audio codec for: 86018
  688. 20:18:10 T:5352  NOTICE: running thread: video_thread
  689. 20:18:10 T:5504  NOTICE: Creating audio thread
  690. 20:18:10 T:1876  NOTICE: running thread: CDVDPlayerAudio::Process()
  691. 20:18:10 T:5504 WARNING: CDVDPlayer::CheckContinuity - wrapback of stream:2, prev:83416.666667, curr:41708.333333, diff:-41708.333333
  692. 20:18:10 T:1876  NOTICE: Creating audio device with codec id: 86018, channels: 6, sample rate: 48000, no pass-through
  693. 20:18:10 T:1876 WARNING: CDVDMessageQueue(audio)::Get - asked for new data packet, with nothing available
  694. 20:18:10 T:5352 WARNING: Previous line repeats 2 times.
  695. 20:18:10 T:5352  NOTICE:  fps: 23.976024, pwidth: 720, pheight: 304, dwidth: 720, dheight: 304
  696. 20:18:10 T:5352  NOTICE: Display resolution USER : 1920x1080 @ 30.00i - Full Screen #2 (13)
  697. 20:18:10 T:5352  NOTICE: D3D: rendering method forced to DXVA2 processor
  698. 20:18:10 T:5352 WARNING: CDVDMessageQueue(video)::Get - asked for new data packet, with nothing available
  699. 20:18:13 T:5804 WARNING: Previous line repeats 1 times.
  700. 20:18:13 T:5804  NOTICE: DVDPlayer: Opening: F:\Movies\The Dark Knight (HD)\The Dark Knight - HD (2008).wmv
  701. 20:18:13 T:5804  NOTICE: CDVDPlayer::CloseFile()
  702. 20:18:13 T:5804  NOTICE: DVDPlayer: waiting for threads to exit
  703. 20:18:13 T:5504  NOTICE: CDVDPlayer::OnExit()
  704. 20:18:13 T:5504  NOTICE: DVDPlayer: closing audio stream
  705. 20:18:13 T:5504  NOTICE: Closing audio stream
  706. 20:18:13 T:5504  NOTICE: Waiting for audio thread to exit
  707. 20:18:13 T:1876  NOTICE: thread end: CDVDPlayerAudio::OnExit()
  708. 20:18:13 T:5504  NOTICE: Closing audio device
  709. 20:18:13 T:5504  NOTICE: Deleting audio codec
  710. 20:18:13 T:5504  NOTICE: DVDPlayer: closing video stream
  711. 20:18:13 T:5504  NOTICE: Closing video stream
  712. 20:18:13 T:5504  NOTICE: waiting for video thread to exit
  713. 20:18:13 T:5352  NOTICE: thread end: video_thread
  714. 20:18:13 T:5504  NOTICE: deleting video codec
  715. 20:18:13 T:5504  NOTICE: CDVDPlayer::OnExit() deleting demuxer
  716. 20:18:13 T:5504  NOTICE: CDVDPlayer::OnExit() deleting input stream
  717. 20:18:13 T:5804  NOTICE: DVDPlayer: finished waiting
  718. 20:18:13 T:5804 WARNING: CDVDMessageQueue(player)::Put MSGQ_NOT_INITIALIZED
  719. 20:18:13 T:4620  NOTICE: Creating InputStream
  720. 20:18:13 T:4620  NOTICE: Creating Demuxer
  721. 20:18:13 T:4620  NOTICE: Opening video stream: 1 source: 256
  722. 20:18:13 T:4620  NOTICE: Creating video codec with codec id: 73
  723. 20:18:13 T:4620  NOTICE: CDVDVideoCodecFFmpeg::Open() Using codec: SMPTE VC-1
  724. 20:18:13 T:4620  NOTICE: Creating video thread
  725. 20:18:13 T:4620  NOTICE: Opening audio stream: 0 source: 256
  726. 20:18:13 T:4620  NOTICE: Finding audio codec for: 86056
  727. 20:18:13 T:6156  NOTICE: running thread: video_thread
  728. 20:18:13 T:4620  NOTICE: Creating audio thread
  729. 20:18:13 T:4252  NOTICE: running thread: CDVDPlayerAudio::Process()
  730. 20:18:13 T:4252  NOTICE: Creating audio device with codec id: 86056, channels: 6, sample rate: 96000, no pass-through
  731. 20:18:13 T:6156  NOTICE:  fps: 23.976024, pwidth: 1920, pheight: 1080, dwidth: 1920, dheight: 1080
  732. 20:18:13 T:6156  NOTICE: Display resolution USER : 1920x1080 @ 30.00i - Full Screen #2 (13)
  733. 20:18:13 T:6156  NOTICE: D3D: rendering method forced to DXVA2 processor
  734. 20:18:13 T:4252   ERROR: CDVDPlayerAudio::DecodeFrame - Decode Error. Skipping audio packet
  735. 20:18:14 T:5804   ERROR: Previous line repeats 1 times.
  736. 20:18:14 T:5804   ERROR: Texture manager unable to load file: C:\Users\Pearce\AppData\Roaming\XBMC\addons\script.pseudotv\resources\images\Science Fiction Movies.png
  737. 20:18:24 T:5804   ERROR: Previous line repeats 1 times.
  738. 20:18:24 T:5804  NOTICE: DVDPlayer: Opening: I:\Movies\The Book of Eli\The.Book.of.Eli.2010.1080p.BluRay.x264.DTS-WiKi.mpg
  739. 20:18:24 T:5804  NOTICE: CDVDPlayer::CloseFile()
  740. 20:18:24 T:5804  NOTICE: DVDPlayer: waiting for threads to exit
  741. 20:18:24 T:4620  NOTICE: CDVDPlayer::OnExit()
  742. 20:18:24 T:4620  NOTICE: DVDPlayer: closing audio stream
  743. 20:18:24 T:4620  NOTICE: Closing audio stream
  744. 20:18:24 T:4620  NOTICE: Waiting for audio thread to exit
  745. 20:18:24 T:4252  NOTICE: thread end: CDVDPlayerAudio::OnExit()
  746. 20:18:24 T:4620  NOTICE: Closing audio device
  747. 20:18:24 T:4620  NOTICE: Deleting audio codec
  748. 20:18:24 T:4620  NOTICE: DVDPlayer: closing video stream
  749. 20:18:24 T:4620  NOTICE: Closing video stream
  750. 20:18:24 T:4620  NOTICE: waiting for video thread to exit
  751. 20:18:24 T:6156  NOTICE: thread end: video_thread
  752. 20:18:24 T:4620  NOTICE: deleting video codec
  753. 20:18:24 T:4620  NOTICE: CDVDPlayer::OnExit() deleting demuxer
  754. 20:18:24 T:4620  NOTICE: CDVDPlayer::OnExit() deleting input stream
  755. 20:18:24 T:5804  NOTICE: DVDPlayer: finished waiting
  756. 20:18:24 T:5804 WARNING: CDVDMessageQueue(player)::Put MSGQ_NOT_INITIALIZED
  757. 20:18:24 T:6820  NOTICE: Creating InputStream
  758. 20:18:25 T:6820  NOTICE: Creating Demuxer
  759. 20:18:25 T:6820  NOTICE: Opening video stream: 0 source: 256
  760. 20:18:25 T:6820  NOTICE: Creating video codec with codec id: 28
  761. 20:18:25 T:6820  NOTICE: CDVDVideoCodecFFmpeg::Open() Using codec: H.264 / AVC / MPEG-4 AVC / MPEG-4 part 10
  762. 20:18:25 T:6820  NOTICE: Creating video thread
  763. 20:18:25 T:6820  NOTICE: Opening audio stream: 1 source: 256
  764. 20:18:25 T:6820  NOTICE: Finding audio codec for: 86019
  765. 20:18:25 T:7116  NOTICE: running thread: video_thread
  766. 20:18:25 T:6820  NOTICE: Creating audio thread
  767. 20:18:25 T:1948  NOTICE: running thread: CDVDPlayerAudio::Process()
  768. 20:18:25 T:1948  NOTICE: Creating audio device with codec id: 86019, channels: 2, sample rate: 48000, pass-through
  769. 20:18:25 T:1948   ERROR: CWin32WASAPI::Initialize: Could not initialize the WASAPI endpoint device. -2147024865
  770. 20:18:25 T:1948   ERROR: CWin32WASAPI::Initialize: WASAPI initialization failed.
  771. 20:18:25 T:7116  NOTICE:  fps: 23.976024, pwidth: 1920, pheight: 800, dwidth: 1920, dheight: 800
  772. 20:18:25 T:7116  NOTICE: Display resolution USER : 1920x1080 @ 30.00i - Full Screen #2 (13)
  773. 20:18:25 T:7116  NOTICE: D3D: rendering method forced to DXVA2 processor
  774. 20:18:27 T:1948   ERROR: CDVDAudio::AddPacketsRenderer - timeout adding data to renderer
  775. 20:18:27 T:1948   ERROR: CDVDAudio::AddPackets - failed to add leftover bytes to render
  776. 20:18:29 T:1948   ERROR: CDVDAudio::AddPacketsRenderer - timeout adding data to renderer
  777. 20:18:29 T:1948   ERROR: CDVDAudio::AddPackets - failed to add leftover bytes to render
  778. 20:18:31 T:1948   ERROR: CDVDAudio::AddPacketsRenderer - timeout adding data to renderer
  779. 20:18:31 T:1948   ERROR: CDVDAudio::AddPackets - failed to add leftover bytes to render
  780. 20:18:33 T:1948   ERROR: CDVDAudio::AddPacketsRenderer - timeout adding data to renderer
  781. 20:18:33 T:1948   ERROR: CDVDAudio::AddPackets - failed to add leftover bytes to render
  782. 20:18:35 T:1948   ERROR: CDVDAudio::AddPacketsRenderer - timeout adding data to renderer
  783. 20:18:35 T:1948   ERROR: CDVDAudio::AddPackets - failed to add leftover bytes to render
  784. 20:18:38 T:1948   ERROR: CDVDAudio::AddPacketsRenderer - timeout adding data to renderer
  785. 20:18:38 T:1948   ERROR: CDVDAudio::AddPackets - failed to add leftover bytes to render
  786. 20:18:40 T:1948   ERROR: CDVDAudio::AddPacketsRenderer - timeout adding data to renderer
  787. 20:18:40 T:1948   ERROR: CDVDAudio::AddPackets - failed to add leftover bytes to render
  788. 20:18:42 T:1948   ERROR: CDVDAudio::AddPacketsRenderer - timeout adding data to renderer
  789. 20:18:42 T:1948   ERROR: CDVDAudio::AddPackets - failed to add leftover bytes to render
  790. 20:18:44 T:1948   ERROR: CDVDAudio::AddPacketsRenderer - timeout adding data to renderer
  791. 20:18:44 T:1948   ERROR: CDVDAudio::AddPackets - failed to add leftover bytes to render
  792. 20:18:46 T:1948   ERROR: CDVDAudio::AddPacketsRenderer - timeout adding data to renderer
  793. 20:18:46 T:1948   ERROR: CDVDAudio::AddPackets - failed to add leftover bytes to render
  794. 20:18:48 T:1948   ERROR: CDVDAudio::AddPacketsRenderer - timeout adding data to renderer
  795. 20:18:48 T:1948   ERROR: CDVDAudio::AddPackets - failed to add leftover bytes to render
  796. 20:18:50 T:1948   ERROR: CDVDAudio::AddPacketsRenderer - timeout adding data to renderer
  797. 20:18:50 T:1948   ERROR: CDVDAudio::AddPackets - failed to add leftover bytes to render
  798. 20:18:52 T:1948   ERROR: CDVDAudio::AddPacketsRenderer - timeout adding data to renderer
  799. 20:18:52 T:1948   ERROR: CDVDAudio::AddPackets - failed to add leftover bytes to render
  800. 20:18:54 T:1948   ERROR: CDVDAudio::AddPacketsRenderer - timeout adding data to renderer
  801. 20:18:54 T:1948   ERROR: CDVDAudio::AddPackets - failed to add leftover bytes to render
  802. 20:18:56 T:1948   ERROR: CDVDAudio::AddPacketsRenderer - timeout adding data to renderer
  803. 20:18:56 T:1948   ERROR: CDVDAudio::AddPackets - failed to add leftover bytes to render
  804. 20:18:58 T:1948   ERROR: CDVDAudio::AddPacketsRenderer - timeout adding data to renderer
  805. 20:18:58 T:1948   ERROR: CDVDAudio::AddPackets - failed to add leftover bytes to render
  806. 20:19:00 T:1948   ERROR: CDVDAudio::AddPacketsRenderer - timeout adding data to renderer
  807. 20:19:00 T:1948   ERROR: CDVDAudio::AddPackets - failed to add leftover bytes to render
  808. 20:19:02 T:1948   ERROR: CDVDAudio::AddPacketsRenderer - timeout adding data to renderer
  809. 20:19:02 T:1948   ERROR: CDVDAudio::AddPackets - failed to add leftover bytes to render
  810. 20:19:05 T:1948   ERROR: CDVDAudio::AddPacketsRenderer - timeout adding data to renderer
  811. 20:19:05 T:1948   ERROR: CDVDAudio::AddPackets - failed to add leftover bytes to render
  812. 20:19:07 T:1948   ERROR: CDVDAudio::AddPacketsRenderer - timeout adding data to renderer
  813. 20:19:07 T:1948   ERROR: CDVDAudio::AddPackets - failed to add leftover bytes to render
  814. 20:19:09 T:1948   ERROR: CDVDAudio::AddPacketsRenderer - timeout adding data to renderer
  815. 20:19:09 T:1948   ERROR: CDVDAudio::AddPackets - failed to add leftover bytes to render
  816. 20:19:11 T:1948   ERROR: CDVDAudio::AddPacketsRenderer - timeout adding data to renderer
  817. 20:19:11 T:1948   ERROR: CDVDAudio::AddPackets - failed to add leftover bytes to render
  818. 20:19:13 T:1948   ERROR: CDVDAudio::AddPacketsRenderer - timeout adding data to renderer
  819. 20:19:13 T:1948   ERROR: CDVDAudio::AddPackets - failed to add leftover bytes to render
  820. 20:19:15 T:1948   ERROR: CDVDAudio::AddPacketsRenderer - timeout adding data to renderer
  821. 20:19:15 T:1948   ERROR: CDVDAudio::AddPackets - failed to add leftover bytes to render
  822. 20:19:17 T:1948   ERROR: CDVDAudio::AddPacketsRenderer - timeout adding data to renderer
  823. 20:19:17 T:1948   ERROR: CDVDAudio::AddPackets - failed to add leftover bytes to render
  824. 20:19:18 T:7116 WARNING: CDVDMessageQueue(video)::Get - asked for new data packet, with nothing available
  825. 20:19:19 T:1948   ERROR: CDVDAudio::AddPacketsRenderer - timeout adding data to renderer
  826. 20:19:19 T:1948   ERROR: CDVDAudio::AddPackets - failed to add leftover bytes to render
  827. 20:19:21 T:1948   ERROR: CDVDAudio::AddPacketsRenderer - timeout adding data to renderer
  828. 20:19:21 T:1948   ERROR: CDVDAudio::AddPackets - failed to add leftover bytes to render
  829. 20:19:23 T:1948   ERROR: CDVDAudio::AddPacketsRenderer - timeout adding data to renderer
  830. 20:19:23 T:1948   ERROR: CDVDAudio::AddPackets - failed to add leftover bytes to render
  831. 20:19:25 T:1948   ERROR: CDVDAudio::AddPacketsRenderer - timeout adding data to renderer
  832. 20:19:25 T:1948   ERROR: CDVDAudio::AddPackets - failed to add leftover bytes to render
  833. 20:19:26 T:7116 WARNING: CDVDMessageQueue(video)::Get - asked for new data packet, with nothing available
  834. 20:19:27 T:1948   ERROR: CDVDAudio::AddPacketsRenderer - timeout adding data to renderer
  835. 20:19:27 T:1948   ERROR: CDVDAudio::AddPackets - failed to add leftover bytes to render
  836. 20:19:29 T:1948   ERROR: CDVDAudio::AddPacketsRenderer - timeout adding data to renderer
  837. 20:19:29 T:1948   ERROR: CDVDAudio::AddPackets - failed to add leftover bytes to render
  838. 20:19:30 T:7116 WARNING: CDVDMessageQueue(video)::Get - asked for new data packet, with nothing available
  839. 20:19:32 T:1948   ERROR: CDVDAudio::AddPacketsRenderer - timeout adding data to renderer
  840. 20:19:32 T:1948   ERROR: CDVDAudio::AddPackets - failed to add leftover bytes to render
  841. 20:19:32 T:7116 WARNING: CDVDMessageQueue(video)::Get - asked for new data packet, with nothing available
  842. 20:19:34 T:1948   ERROR: CDVDAudio::AddPacketsRenderer - timeout adding data to renderer
  843. 20:19:34 T:1948   ERROR: CDVDAudio::AddPackets - failed to add leftover bytes to render
  844. 20:19:34 T:7116 WARNING: CDVDMessageQueue(video)::Get - asked for new data packet, with nothing available
  845. 20:19:36 T:1948   ERROR: CDVDAudio::AddPacketsRenderer - timeout adding data to renderer
  846. 20:19:36 T:1948   ERROR: CDVDAudio::AddPackets - failed to add leftover bytes to render
  847. 20:19:38 T:1948   ERROR: CDVDAudio::AddPacketsRenderer - timeout adding data to renderer
  848. 20:19:38 T:1948   ERROR: CDVDAudio::AddPackets - failed to add leftover bytes to render
  849. 20:19:38 T:7116 WARNING: CDVDMessageQueue(video)::Get - asked for new data packet, with nothing available
  850. 20:19:40 T:1948   ERROR: CDVDAudio::AddPacketsRenderer - timeout adding data to renderer
  851. 20:19:40 T:1948   ERROR: CDVDAudio::AddPackets - failed to add leftover bytes to render
  852. 20:19:42 T:1948   ERROR: CDVDAudio::AddPacketsRenderer - timeout adding data to renderer
  853. 20:19:42 T:1948   ERROR: CDVDAudio::AddPackets - failed to add leftover bytes to render
  854. 20:19:44 T:1948   ERROR: CDVDAudio::AddPacketsRenderer - timeout adding data to renderer
  855. 20:19:44 T:1948   ERROR: CDVDAudio::AddPackets - failed to add leftover bytes to render
  856. 20:19:46 T:1948   ERROR: CDVDAudio::AddPacketsRenderer - timeout adding data to renderer
  857. 20:19:46 T:1948   ERROR: CDVDAudio::AddPackets - failed to add leftover bytes to render
  858. 20:19:47 T:7116 WARNING: CDVDMessageQueue(video)::Get - asked for new data packet, with nothing available
  859. 20:19:48 T:1948   ERROR: CDVDAudio::AddPacketsRenderer - timeout adding data to renderer
  860. 20:19:48 T:1948   ERROR: CDVDAudio::AddPackets - failed to add leftover bytes to render
  861. 20:19:50 T:1948   ERROR: CDVDAudio::AddPacketsRenderer - timeout adding data to renderer
  862. 20:19:50 T:1948   ERROR: CDVDAudio::AddPackets - failed to add leftover bytes to render
  863. 20:19:51 T:7116 WARNING: CDVDMessageQueue(video)::Get - asked for new data packet, with nothing available
  864. 20:19:52 T:1948   ERROR: CDVDAudio::AddPacketsRenderer - timeout adding data to renderer
  865. 20:19:52 T:1948   ERROR: CDVDAudio::AddPackets - failed to add leftover bytes to render
  866. 20:19:55 T:1948   ERROR: CDVDAudio::AddPacketsRenderer - timeout adding data to renderer
  867. 20:19:55 T:1948   ERROR: CDVDAudio::AddPackets - failed to add leftover bytes to render
  868. 20:19:55 T:7116 WARNING: CDVDMessageQueue(video)::Get - asked for new data packet, with nothing available
  869. 20:19:57 T:1948   ERROR: CDVDAudio::AddPacketsRenderer - timeout adding data to renderer
  870. 20:19:57 T:1948   ERROR: CDVDAudio::AddPackets - failed to add leftover bytes to render
  871. 20:19:59 T:1948   ERROR: CDVDAudio::AddPacketsRenderer - timeout adding data to renderer
  872. 20:19:59 T:1948   ERROR: CDVDAudio::AddPackets - failed to add leftover bytes to render
  873. 20:20:00 T:7116 WARNING: CDVDMessageQueue(video)::Get - asked for new data packet, with nothing available
  874. 20:20:01 T:1948   ERROR: CDVDAudio::AddPacketsRenderer - timeout adding data to renderer
  875. 20:20:01 T:1948   ERROR: CDVDAudio::AddPackets - failed to add leftover bytes to render
  876. 20:20:01 T:7116 WARNING: CDVDMessageQueue(video)::Get - asked for new data packet, with nothing available
  877. 20:20:03 T:1948   ERROR: CDVDAudio::AddPacketsRenderer - timeout adding data to renderer
  878. 20:20:03 T:1948   ERROR: CDVDAudio::AddPackets - failed to add leftover bytes to render
  879. 20:20:05 T:1948   ERROR: CDVDAudio::AddPacketsRenderer - timeout adding data to renderer
  880. 20:20:05 T:1948   ERROR: CDVDAudio::AddPackets - failed to add leftover bytes to render
  881. 20:20:06 T:7116 WARNING: CDVDMessageQueue(video)::Get - asked for new data packet, with nothing available
  882. 20:20:07 T:1948   ERROR: CDVDAudio::AddPacketsRenderer - timeout adding data to renderer
  883. 20:20:07 T:1948   ERROR: CDVDAudio::AddPackets - failed to add leftover bytes to render
  884. 20:20:08 T:7116 WARNING: CDVDMessageQueue(video)::Get - asked for new data packet, with nothing available
  885. 20:20:09 T:1948   ERROR: CDVDAudio::AddPacketsRenderer - timeout adding data to renderer
  886. 20:20:09 T:1948   ERROR: CDVDAudio::AddPackets - failed to add leftover bytes to render
  887. 20:20:11 T:1948   ERROR: CDVDAudio::AddPacketsRenderer - timeout adding data to renderer
  888. 20:20:11 T:1948   ERROR: CDVDAudio::AddPackets - failed to add leftover bytes to render
  889. 20:20:13 T:1948   ERROR: CDVDAudio::AddPacketsRenderer - timeout adding data to renderer
  890. 20:20:13 T:1948   ERROR: CDVDAudio::AddPackets - failed to add leftover bytes to render
  891. 20:20:14 T:7116 WARNING: CDVDMessageQueue(video)::Get - asked for new data packet, with nothing available
  892. 20:20:16 T:1948   ERROR: CDVDAudio::AddPacketsRenderer - timeout adding data to renderer
  893. 20:20:16 T:1948   ERROR: CDVDAudio::AddPackets - failed to add leftover bytes to render
  894. 20:20:16 T:7116 WARNING: CDVDMessageQueue(video)::Get - asked for new data packet, with nothing available
  895. 20:20:18 T:1948   ERROR: CDVDAudio::AddPacketsRenderer - timeout adding data to renderer
  896. 20:20:18 T:1948   ERROR: CDVDAudio::AddPackets - failed to add leftover bytes to render
  897. 20:20:20 T:1948   ERROR: CDVDAudio::AddPacketsRenderer - timeout adding data to renderer
  898. 20:20:20 T:1948   ERROR: CDVDAudio::AddPackets - failed to add leftover bytes to render
  899. 20:20:20 T:7116 WARNING: CDVDMessageQueue(video)::Get - asked for new data packet, with nothing available
  900. 20:20:22 T:1948   ERROR: CDVDAudio::AddPacketsRenderer - timeout adding data to renderer
  901. 20:20:22 T:1948   ERROR: CDVDAudio::AddPackets - failed to add leftover bytes to render
  902. 20:20:24 T:1948   ERROR: CDVDAudio::AddPacketsRenderer - timeout adding data to renderer
  903. 20:20:24 T:1948   ERROR: CDVDAudio::AddPackets - failed to add leftover bytes to render
  904. 20:20:26 T:1948   ERROR: CDVDAudio::AddPacketsRenderer - timeout adding data to renderer
  905. 20:20:26 T:1948   ERROR: CDVDAudio::AddPackets - failed to add leftover bytes to render
  906. 20:20:28 T:1948   ERROR: CDVDAudio::AddPacketsRenderer - timeout adding data to renderer
  907. 20:20:28 T:1948   ERROR: CDVDAudio::AddPackets - failed to add leftover bytes to render
  908. 20:20:29 T:7116 WARNING: CDVDMessageQueue(video)::Get - asked for new data packet, with nothing available
  909. 20:20:30 T:1948   ERROR: CDVDAudio::AddPacketsRenderer - timeout adding data to renderer
  910. 20:20:30 T:1948   ERROR: CDVDAudio::AddPackets - failed to add leftover bytes to render
  911. 20:20:32 T:1948   ERROR: CDVDAudio::AddPacketsRenderer - timeout adding data to renderer
  912. 20:20:32 T:1948   ERROR: CDVDAudio::AddPackets - failed to add leftover bytes to render
  913. 20:20:33 T:7116 WARNING: CDVDMessageQueue(video)::Get - asked for new data packet, with nothing available
  914. 20:20:34 T:1948   ERROR: CDVDAudio::AddPacketsRenderer - timeout adding data to renderer
  915. 20:20:34 T:1948   ERROR: CDVDAudio::AddPackets - failed to add leftover bytes to render
  916. 20:20:37 T:1948   ERROR: CDVDAudio::AddPacketsRenderer - timeout adding data to renderer
  917. 20:20:37 T:1948   ERROR: CDVDAudio::AddPackets - failed to add leftover bytes to render
  918. 20:20:37 T:7116 WARNING: CDVDMessageQueue(video)::Get - asked for new data packet, with nothing available
  919. 20:20:39 T:1948   ERROR: CDVDAudio::AddPacketsRenderer - timeout adding data to renderer
  920. 20:20:39 T:1948   ERROR: CDVDAudio::AddPackets - failed to add leftover bytes to render
  921. 20:20:41 T:1948   ERROR: CDVDAudio::AddPacketsRenderer - timeout adding data to renderer
  922. 20:20:41 T:1948   ERROR: CDVDAudio::AddPackets - failed to add leftover bytes to render
  923. 20:20:41 T:7116 WARNING: CDVDMessageQueue(video)::Get - asked for new data packet, with nothing available
  924. 20:20:43 T:1948   ERROR: CDVDAudio::AddPacketsRenderer - timeout adding data to renderer
  925. 20:20:43 T:1948   ERROR: CDVDAudio::AddPackets - failed to add leftover bytes to render
  926. 20:20:43 T:7116 WARNING: CDVDMessageQueue(video)::Get - asked for new data packet, with nothing available
  927. 20:20:45 T:1948   ERROR: CDVDAudio::AddPacketsRenderer - timeout adding data to renderer
  928. 20:20:45 T:1948   ERROR: CDVDAudio::AddPackets - failed to add leftover bytes to render
  929. 20:20:47 T:1948   ERROR: CDVDAudio::AddPacketsRenderer - timeout adding data to renderer
  930. 20:20:47 T:1948   ERROR: CDVDAudio::AddPackets - failed to add leftover bytes to render
  931. 20:20:49 T:1948   ERROR: CDVDAudio::AddPacketsRenderer - timeout adding data to renderer
  932. 20:20:49 T:1948   ERROR: CDVDAudio::AddPackets - failed to add leftover bytes to render
  933. 20:20:51 T:1948   ERROR: CDVDAudio::AddPacketsRenderer - timeout adding data to renderer
  934. 20:20:51 T:1948   ERROR: CDVDAudio::AddPackets - failed to add leftover bytes to render
  935. 20:20:53 T:1948   ERROR: CDVDAudio::AddPacketsRenderer - timeout adding data to renderer
  936. 20:20:53 T:1948   ERROR: CDVDAudio::AddPackets - failed to add leftover bytes to render
  937. 20:20:56 T:1948   ERROR: CDVDAudio::AddPacketsRenderer - timeout adding data to renderer
  938. 20:20:56 T:1948   ERROR: CDVDAudio::AddPackets - failed to add leftover bytes to render
  939. 20:20:56 T:7116 WARNING: CDVDMessageQueue(video)::Get - asked for new data packet, with nothing available
  940. 20:20:58 T:1948   ERROR: CDVDAudio::AddPacketsRenderer - timeout adding data to renderer
  941. 20:20:58 T:1948   ERROR: CDVDAudio::AddPackets - failed to add leftover bytes to render
  942. 20:20:58 T:7116 WARNING: CDVDMessageQueue(video)::Get - asked for new data packet, with nothing available
  943. 20:21:00 T:1948   ERROR: CDVDAudio::AddPacketsRenderer - timeout adding data to renderer
  944. 20:21:00 T:1948   ERROR: CDVDAudio::AddPackets - failed to add leftover bytes to render
  945. 20:21:02 T:1948   ERROR: CDVDAudio::AddPacketsRenderer - timeout adding data to renderer
  946. 20:21:02 T:1948   ERROR: CDVDAudio::AddPackets - failed to add leftover bytes to render
  947. 20:21:03 T:7116 WARNING: CDVDMessageQueue(video)::Get - asked for new data packet, with nothing available
  948. 20:21:04 T:1948   ERROR: CDVDAudio::AddPacketsRenderer - timeout adding data to renderer
  949. 20:21:04 T:1948   ERROR: CDVDAudio::AddPackets - failed to add leftover bytes to render
  950. 20:21:05 T:7116 WARNING: CDVDMessageQueue(video)::Get - asked for new data packet, with nothing available
  951. 20:21:06 T:1948   ERROR: CDVDAudio::AddPacketsRenderer - timeout adding data to renderer
  952. 20:21:06 T:1948   ERROR: CDVDAudio::AddPackets - failed to add leftover bytes to render
  953. 20:21:08 T:1948   ERROR: CDVDAudio::AddPacketsRenderer - timeout adding data to renderer
  954. 20:21:08 T:1948   ERROR: CDVDAudio::AddPackets - failed to add leftover bytes to render
  955. 20:21:10 T:1948   ERROR: CDVDAudio::AddPacketsRenderer - timeout adding data to renderer
  956. 20:21:10 T:1948   ERROR: CDVDAudio::AddPackets - failed to add leftover bytes to render
  957. 20:21:11 T:7116 WARNING: CDVDMessageQueue(video)::Get - asked for new data packet, with nothing available
  958. 20:21:13 T:1948   ERROR: CDVDAudio::AddPacketsRenderer - timeout adding data to renderer
  959. 20:21:13 T:1948   ERROR: CDVDAudio::AddPackets - failed to add leftover bytes to render
  960. 20:21:15 T:1948   ERROR: CDVDAudio::AddPacketsRenderer - timeout adding data to renderer
  961. 20:21:15 T:1948   ERROR: CDVDAudio::AddPackets - failed to add leftover bytes to render
  962. 20:21:17 T:1948   ERROR: CDVDAudio::AddPacketsRenderer - timeout adding data to renderer
  963. 20:21:17 T:1948   ERROR: CDVDAudio::AddPackets - failed to add leftover bytes to render
  964. 20:21:19 T:1948   ERROR: CDVDAudio::AddPacketsRenderer - timeout adding data to renderer
  965. 20:21:19 T:1948   ERROR: CDVDAudio::AddPackets - failed to add leftover bytes to render
  966. 20:21:19 T:7116 WARNING: CDVDMessageQueue(video)::Get - asked for new data packet, with nothing available
  967. 20:21:21 T:1948   ERROR: CDVDAudio::AddPacketsRenderer - timeout adding data to renderer
  968. 20:21:21 T:1948   ERROR: CDVDAudio::AddPackets - failed to add leftover bytes to render
  969. 20:21:23 T:1948   ERROR: CDVDAudio::AddPacketsRenderer - timeout adding data to renderer
  970. 20:21:23 T:1948   ERROR: CDVDAudio::AddPackets - failed to add leftover bytes to render
  971. 20:21:25 T:1948   ERROR: CDVDAudio::AddPacketsRenderer - timeout adding data to renderer
  972. 20:21:25 T:1948   ERROR: CDVDAudio::AddPackets - failed to add leftover bytes to render
  973. 20:21:26 T:7116 WARNING: CDVDMessageQueue(video)::Get - asked for new data packet, with nothing available
  974. 20:21:27 T:1948   ERROR: CDVDAudio::AddPacketsRenderer - timeout adding data to renderer
  975. 20:21:27 T:1948   ERROR: CDVDAudio::AddPackets - failed to add leftover bytes to render
  976. 20:21:29 T:1948   ERROR: CDVDAudio::AddPacketsRenderer - timeout adding data to renderer
  977. 20:21:29 T:1948   ERROR: CDVDAudio::AddPackets - failed to add leftover bytes to render
  978. 20:21:31 T:1948   ERROR: CDVDAudio::AddPacketsRenderer - timeout adding data to renderer
  979. 20:21:31 T:1948   ERROR: CDVDAudio::AddPackets - failed to add leftover bytes to render
  980. 20:21:32 T:7116 WARNING: CDVDMessageQueue(video)::Get - asked for new data packet, with nothing available
  981. 20:21:34 T:1948   ERROR: CDVDAudio::AddPacketsRenderer - timeout adding data to renderer
  982. 20:21:34 T:1948   ERROR: CDVDAudio::AddPackets - failed to add leftover bytes to render
  983. 20:21:36 T:1948   ERROR: CDVDAudio::AddPacketsRenderer - timeout adding data to renderer
  984. 20:21:36 T:1948   ERROR: CDVDAudio::AddPackets - failed to add leftover bytes to render
  985. 20:21:38 T:1948   ERROR: CDVDAudio::AddPacketsRenderer - timeout adding data to renderer
  986. 20:21:38 T:1948   ERROR: CDVDAudio::AddPackets - failed to add leftover bytes to render